Observation data for Wall on 01/13/2018      Previous  Date  Next       Current Mesonet Observations  Soil Data  Daily Summary Page  Observations in Plain Language
KWA1 130600Z 05007KT M02/M10 A3038 RMK A01 T10151095  RH  055%=      5-min Rain = 0
KWA1 130601Z 06008KT M02/M09 A3038 RMK A01 T10171094  RH  055%=      5-min Rain = 0
KWA1 130602Z 06009KT M02/M09 A3038 RMK A01 T10181094  RH  056%=      5-min Rain = 0
KWA1 130603Z 06008KT M02/M10 A3038 RMK A01 T10181095  RH  056%=      5-min Rain = 0
KWA1 130604Z 06008KT M02/M10 A3038 RMK A01 T10171096  RH  055%=      5-min Rain = 0
KWA1 130605Z 06008KT M02/M10 A3038 RMK A01 T10171097  RH  054%=      5-min Rain = 0
KWA1 130606Z 05008KT M02/M10 A3038 RMK A01 T10171098  RH  054%=      5-min Rain = 0
KWA1 130607Z 05008KT M02/M10 A3038 RMK A01 T10171098  RH  054%=      5-min Rain = 0
KWA1 130608Z 05008KT M02/M10 A3038 RMK A01 T10161098  RH  054%=      5-min Rain = 0
KWA1 130609Z 05008KT M02/M10 A3039 RMK A01 T10161098  RH  053%=      5-min Rain = 0
KWA1 130610Z 05009KT M02/M10 A3039 RMK A01 T10151099  RH  053%=      5-min Rain = 0
KWA1 130611Z 05009KT M02/M10 A3039 RMK A01 T10151101  RH  052%=      5-min Rain = 0
KWA1 130612Z 05009KT M01/M10 A3039 RMK A01 T10141101  RH  051%=      5-min Rain = 0
KWA1 130613Z 05008KT M01/M10 A3039 RMK A01 T10131101  RH  051%=      5-min Rain = 0
KWA1 130614Z 05007KT M01/M10 A3038 RMK A01 T10141102  RH  051%=      5-min Rain = 0
KWA1 130615Z 06007KT M02/M10 A3038 RMK A01 T10151103  RH  051%=      5-min Rain = 0
KWA1 130616Z 07006KT M02/M10 A3038 RMK A01 T10161102  RH  052%=      5-min Rain = 0
KWA1 130617Z 07007KT M02/M10 A3038 RMK A01 T10171101  RH  053%=      5-min Rain = 0
KWA1 130618Z 07007KT M02/M10 A3038 RMK A01 T10181101  RH  053%=      5-min Rain = 0
KWA1 130619Z 06008KT M02/M10 A3039 RMK A01 T10181101  RH  053%=      5-min Rain = 0
KWA1 130620Z 06008KT M02/M10 A3039 RMK A01 T10191101  RH  053%=      5-min Rain = 0
KWA1 130621Z 05008KT M02/M10 A3039 RMK A01 T10191101  RH  054%=      5-min Rain = 0
KWA1 130622Z 05008KT M02/M10 A3039 RMK A01 T10181100  RH  054%=      5-min Rain = 0
KWA1 130623Z 04008KT M02/M10 A3039 RMK A01 T10181099  RH  054%=      5-min Rain = 0
KWA1 130624Z 04008KT M02/M10 A3039 RMK A01 T10181100  RH  053%=      5-min Rain = 0
KWA1 130625Z 05008KT M02/M10 A3039 RMK A01 T10171100  RH  053%=      5-min Rain = 0
KWA1 130626Z 05008KT M02/M10 A3039 RMK A01 T10161101  RH  052%=      5-min Rain = 0
KWA1 130627Z 05007KT M02/M10 A3039 RMK A01 T10161102  RH  052%=      5-min Rain = 0
KWA1 130628Z 04007KT M02/M10 A3039 RMK A01 T10181102  RH  053%=      5-min Rain = 0
KWA1 130629Z 04007KT M02/M10 A3039 RMK A01 T10201103  RH  053%=      5-min Rain = 0
KWA1 130630Z 04006KT M02/M10 A3039 RMK A01 T10211103  RH  054%=      5-min Rain = 0
KWA1 130631Z 05007KT M02/M10 A3039 RMK A01 T10221103  RH  054%=      5-min Rain = 0
KWA1 130632Z 06007KT M02/M10 A3039 RMK A01 T10231103  RH  054%=      5-min Rain = 0
KWA1 130633Z 06007KT M02/M10 A3039 RMK A01 T10241102  RH  055%=      5-min Rain = 0
KWA1 130634Z 05007KT M03/M10 A3039 RMK A01 T10251102  RH  055%=      5-min Rain = 0
KWA1 130635Z 05007KT M03/M10 A304 RMK A01 T10251101  RH  056%=      5-min Rain = 0
KWA1 130636Z 04007KT M03/M10 A304 RMK A01 T10251101  RH  056%=      5-min Rain = 0
KWA1 130637Z 04007KT M03/M10 A304 RMK A01 T10261101  RH  056%=      5-min Rain = 0
KWA1 130638Z 04007KT M03/M10 A304 RMK A01 T10261101  RH  056%=      5-min Rain = 0
KWA1 130639Z 04007KT M03/M10 A304 RMK A01 T10261101  RH  056%=      5-min Rain = 0
KWA1 130640Z 05008KT M03/M10 A304 RMK A01 T10261102  RH  056%=      5-min Rain = 0
KWA1 130641Z 04007KT M03/M10 A304 RMK A01 T10251102  RH  056%=      5-min Rain = 0
KWA1 130642Z 04007KT M03/M10 A304 RMK A01 T10251102  RH  056%=      5-min Rain = 0
KWA1 130643Z 04007KT M03/M10 A3041 RMK A01 T10251102  RH  056%=      5-min Rain = 0
KWA1 130644Z 04007KT M03/M10 A3041 RMK A01 T10251102  RH  056%=      5-min Rain = 0
KWA1 130645Z 04006KT M03/M10 A3041 RMK A01 T10251102  RH  056%=      5-min Rain = 0
KWA1 130646Z 04006KT M03/M10 A3041 RMK A01 T10271102  RH  056%=      5-min Rain = 0
KWA1 130647Z 04006KT M03/M10 A3041 RMK A01 T10271102  RH  057%=      5-min Rain = 0
KWA1 130648Z 04006KT M03/M10 A3041 RMK A01 T10291102  RH  057%=      5-min Rain = 0
KWA1 130649Z 04006KT M03/M10 A3041 RMK A01 T10301101  RH  058%=      5-min Rain = 0
KWA1 130650Z 04007KT M03/M10 A3041 RMK A01 T10311101  RH  058%=      5-min Rain = 0
KWA1 130651Z 04007KT M03/M10 A3041 RMK A01 T10321101  RH  059%=      5-min Rain = 0
KWA1 130652Z 03008KT M03/M10 A3041 RMK A01 T10331101  RH  059%=      5-min Rain = 0
KWA1 130653Z 03008KT M03/M10 A3042 RMK A01 T10331100  RH  060%=      5-min Rain = 0
KWA1 130654Z 03008KT M03/M10 A3042 RMK A01 T10331100  RH  060%=      5-min Rain = 0
KWA1 130655Z 03009KT M03/M10 A3042 RMK A01 T10321100  RH  060%=      5-min Rain = 0
KWA1 130656Z 04008KT M03/M10 A3042 RMK A01 T10321100  RH  060%=      5-min Rain = 0
KWA1 130657Z 03008KT M03/M10 A3042 RMK A01 T10321100  RH  059%=      5-min Rain = 0
KWA1 130658Z 03008KT M03/M10 A3042 RMK A01 T10311100  RH  059%=      5-min Rain = 0
KWA1 130659Z 03009KT M03/M10 A3042 RMK A01 T10301100  RH  059%=      5-min Rain = 0
KWA1 130700Z 03009KT M03/M10 A3042 RMK A01 T10301100  RH  059%=      5-min Rain = 0
KWA1 130701Z 03009KT M03/M10 A3042 RMK A01 T10301100  RH  059%=      5-min Rain = 0
KWA1 130702Z 03008KT M03/M10 A3042 RMK A01 T10301100  RH  059%=      5-min Rain = 0
KWA1 130703Z 03008KT M03/M10 A3042 RMK A01 T10301099  RH  059%=      5-min Rain = 0
KWA1 130704Z 03009KT M03/M10 A3043 RMK A01 T10311100  RH  059%=      5-min Rain = 0
KWA1 130705Z 03009KT M03/M10 A3043 RMK A01 T10311100  RH  059%=      5-min Rain = 0
KWA1 130706Z 03009KT M03/M10 A3043 RMK A01 T10311100  RH  059%=      5-min Rain = 0
KWA1 130707Z 03008KT M03/M10 A3043 RMK A01 T10301099  RH  059%=      5-min Rain = 0
KWA1 130708Z 03008KT M03/M10 A3043 RMK A01 T10291099  RH  058%=      5-min Rain = 0
KWA1 130709Z 03008KT M03/M10 A3043 RMK A01 T10291100  RH  058%=      5-min Rain = 0
KWA1 130710Z 03008KT M03/M10 A3043 RMK A01 T10291100  RH  058%=      5-min Rain = 0
KWA1 130711Z 04008KT M03/M10 A3043 RMK A01 T10291100  RH  058%=      5-min Rain = 0
KWA1 130712Z 04007KT M03/M10 A3043 RMK A01 T10291100  RH  058%=      5-min Rain = 0
KWA1 130713Z 04007KT M03/M10 A3043 RMK A01 T10301100  RH  058%=      5-min Rain = 0
KWA1 130714Z 04006KT M03/M10 A3043 RMK A01 T10291099  RH  058%=      5-min Rain = 0
KWA1 130715Z 04006KT M03/M10 A3043 RMK A01 T10291099  RH  058%=      5-min Rain = 0
KWA1 130716Z 03006KT M03/M10 A3043 RMK A01 T10291099  RH  058%=      5-min Rain = 0
KWA1 130717Z 03006KT M03/M10 A3043 RMK A01 T10301099  RH  059%=      5-min Rain = 0
KWA1 130718Z 03006KT M03/M10 A3043 RMK A01 T10301099  RH  059%=      5-min Rain = 0
KWA1 130719Z 03007KT M03/M10 A3043 RMK A01 T10301099  RH  059%=      5-min Rain = 0
KWA1 130720Z 03007KT M03/M10 A3043 RMK A01 T10311099  RH  059%=      5-min Rain = 0
KWA1 130721Z 03007KT M03/M10 A3043 RMK A01 T10321099  RH  060%=      5-min Rain = 0
KWA1 130722Z 03007KT M03/M10 A3043 RMK A01 T10331099  RH  060%=      5-min Rain = 0
KWA1 130723Z 03006KT M03/M10 A3043 RMK A01 T10331099  RH  061%=      5-min Rain = 0
KWA1 130724Z 03006KT M03/M10 A3043 RMK A01 T10341098  RH  061%=      5-min Rain = 0
KWA1 130725Z 03007KT M04/M10 A3043 RMK A01 T10351099  RH  061%=      5-min Rain = 0
KWA1 130726Z 03007KT M04/M10 A3043 RMK A01 T10351099  RH  061%=      5-min Rain = 0
KWA1 130727Z 03007KT M04/M10 A3044 RMK A01 T10351098  RH  061%=      5-min Rain = 0
KWA1 130728Z 03007KT M03/M10 A3044 RMK A01 T10341098  RH  062%=      5-min Rain = 0
KWA1 130729Z 03008KT M04/M10 A3044 RMK A01 T10351098  RH  062%=      5-min Rain = 0
KWA1 130730Z 03008KT M04/M10 A3044 RMK A01 T10351098  RH  062%=      5-min Rain = 0
KWA1 130731Z 03008KT M04/M10 A3044 RMK A01 T10351098  RH  062%=      5-min Rain = 0
KWA1 130732Z 03007KT M04/M10 A3044 RMK A01 T10351097  RH  062%=      5-min Rain = 0
KWA1 130733Z 03007KT M04/M10 A3044 RMK A01 T10351098  RH  062%=      5-min Rain = 0
KWA1 130734Z 03008KT M04/M10 A3044 RMK A01 T10351098  RH  062%=      5-min Rain = 0
KWA1 130735Z 03008KT M03/M10 A3044 RMK A01 T10341097  RH  062%=      5-min Rain = 0
KWA1 130736Z 03008KT M03/M10 A3044 RMK A01 T10341098  RH  062%=      5-min Rain = 0
KWA1 130737Z 03007KT M03/M10 A3044 RMK A01 T10341098  RH  062%=      5-min Rain = 0
KWA1 130738Z 04007KT M04/M10 A3044 RMK A01 T10351098  RH  062%=      5-min Rain = 0
KWA1 130739Z 04006KT M03/M10 A3044 RMK A01 T10341097  RH  062%=      5-min Rain = 0
KWA1 130740Z 04005KT M03/M10 A3044 RMK A01 T10341097  RH  062%=      5-min Rain = 0
KWA1 130741Z 03005KT M03/M10 A3044 RMK A01 T10341097  RH  061%=      5-min Rain = 0
KWA1 130742Z 03006KT M03/M10 A3044 RMK A01 T10341098  RH  061%=      5-min Rain = 0
KWA1 130743Z 03006KT M03/M10 A3044 RMK A01 T10341098  RH  061%=      5-min Rain = 0
KWA1 130744Z 03007KT M03/M10 A3044 RMK A01 T10341098  RH  062%=      5-min Rain = 0
KWA1 130745Z 03007KT M04/M10 A3044 RMK A01 T10351098  RH  062%=      5-min Rain = 0
KWA1 130746Z 03007KT M04/M10 A3044 RMK A01 T10361097  RH  062%=      5-min Rain = 0
KWA1 130747Z 03007KT M04/M10 A3044 RMK A01 T10361097  RH  062%=      5-min Rain = 0
KWA1 130748Z 03006KT M04/M10 A3044 RMK A01 T10361098  RH  062%=      5-min Rain = 0
KWA1 130749Z 03006KT M04/M10 A3044 RMK A01 T10371098  RH  063%=      5-min Rain = 0
KWA1 130750Z 03006KT M04/M10 A3044 RMK A01 T10371098  RH  063%=      5-min Rain = 0
KWA1 130751Z 03006KT M04/M10 A3044 RMK A01 T10381098  RH  063%=      5-min Rain = 0
KWA1 130752Z 03005KT M04/M10 A3044 RMK A01 T10381098  RH  063%=      5-min Rain = 0
KWA1 130753Z 03005KT M04/M10 A3044 RMK A01 T10391098  RH  063%=      5-min Rain = 0
KWA1 130754Z 04006KT M04/M10 A3044 RMK A01 T10391098  RH  063%=      5-min Rain = 0
KWA1 130755Z 04006KT M04/M10 A3044 RMK A01 T10391098  RH  063%=      5-min Rain = 0
KWA1 130756Z 04006KT M04/M10 A3044 RMK A01 T10381098  RH  063%=      5-min Rain = 0
KWA1 130757Z 04005KT M04/M10 A3044 RMK A01 T10371098  RH  063%=      5-min Rain = 0
KWA1 130758Z 04005KT M04/M10 A3044 RMK A01 T10351097  RH  062%=      5-min Rain = 0
KWA1 130759Z 04005KT M04/M10 A3044 RMK A01 T10361098  RH  062%=      5-min Rain = 0
KWA1 130800Z 04006KT M04/M10 A3044 RMK A01 T10371098  RH  063%=      5-min Rain = 0
KWA1 130801Z 04006KT M04/M10 A3044 RMK A01 T10371098  RH  063%=      5-min Rain = 0
KWA1 130802Z 04006KT M04/M10 A3044 RMK A01 T10371098  RH  062%=      5-min Rain = 0
KWA1 130803Z 04006KT M04/M10 A3045 RMK A01 T10371099  RH  062%=      5-min Rain = 0
KWA1 130804Z 04005KT M04/M10 A3045 RMK A01 T10371099  RH  062%=      5-min Rain = 0
KWA1 130805Z 04005KT M04/M10 A3045 RMK A01 T10381099  RH  062%=      5-min Rain = 0
KWA1 130806Z 05005KT M04/M10 A3045 RMK A01 T10381099  RH  062%=      5-min Rain = 0
KWA1 130807Z 04005KT M04/M10 A3045 RMK A01 T10381100  RH  062%=      5-min Rain = 0
KWA1 130808Z 04005KT M04/M10 A3045 RMK A01 T10381100  RH  062%=      5-min Rain = 0
KWA1 130809Z 04005KT M04/M10 A3045 RMK A01 T10391100  RH  062%=      5-min Rain = 0
KWA1 130810Z 04005KT M04/M10 A3045 RMK A01 T10381099  RH  062%=      5-min Rain = 0
KWA1 130811Z 05005KT M04/M10 A3045 RMK A01 T10381100  RH  062%=      5-min Rain = 0
KWA1 130812Z 05005KT M04/M10 A3045 RMK A01 T10371100  RH  062%=      5-min Rain = 0
KWA1 130813Z 05004KT M04/M10 A3045 RMK A01 T10371100  RH  062%=      5-min Rain = 0
KWA1 130814Z 06004KT M04/M10 A3045 RMK A01 T10371100  RH  061%=      5-min Rain = 0
KWA1 130815Z 06004KT M04/M10 A3045 RMK A01 T10371100  RH  061%=      5-min Rain = 0
KWA1 130816Z 06005KT M04/M10 A3045 RMK A01 T10371101  RH  061%=      5-min Rain = 0
KWA1 130817Z 06005KT M04/M10 A3045 RMK A01 T10371101  RH  061%=      5-min Rain = 0
KWA1 130818Z 06005KT M04/M10 A3045 RMK A01 T10371101  RH  061%=      5-min Rain = 0
KWA1 130819Z 06005KT M04/M10 A3045 RMK A01 T10371101  RH  061%=      5-min Rain = 0
KWA1 130820Z 06005KT M04/M10 A3045 RMK A01 T10371101  RH  061%=      5-min Rain = 0
KWA1 130821Z 06006KT M04/M10 A3045 RMK A01 T10371102  RH  061%=      5-min Rain = 0
KWA1 130822Z 05006KT M04/M10 A3045 RMK A01 T10371101  RH  061%=      5-min Rain = 0
KWA1 130823Z 05005KT M04/M10 A3045 RMK A01 T10371102  RH  061%=      5-min Rain = 0
KWA1 130824Z 05006KT M04/M10 A3045 RMK A01 T10381103  RH  061%=      5-min Rain = 0
KWA1 130825Z 05006KT M04/M10 A3045 RMK A01 T10391103  RH  061%=      5-min Rain = 0
KWA1 130826Z 05005KT M04/M10 A3045 RMK A01 T10391103  RH  061%=      5-min Rain = 0
KWA1 130827Z 05005KT M04/M10 A3045 RMK A01 T10391102  RH  062%=      5-min Rain = 0
KWA1 130828Z 06005KT M04/M10 A3045 RMK A01 T10381101  RH  062%=      5-min Rain = 0
KWA1 130829Z 06005KT M04/M10 A3045 RMK A01 T10381100  RH  062%=      5-min Rain = 0
KWA1 130830Z 06005KT M04/M10 A3045 RMK A01 T10371100  RH  062%=      5-min Rain = 0
KWA1 130831Z 06005KT M04/M10 A3045 RMK A01 T10381101  RH  062%=      5-min Rain = 0
KWA1 130832Z 05006KT M04/M10 A3045 RMK A01 T10391101  RH  062%=      5-min Rain = 0
KWA1 130833Z 05006KT M04/M10 A3045 RMK A01 T10401101  RH  062%=      5-min Rain = 0
KWA1 130834Z 05006KT M04/M10 A3045 RMK A01 T10401101  RH  062%=      5-min Rain = 0
KWA1 130835Z 05006KT M04/M10 A3045 RMK A01 T10401101  RH  063%=      5-min Rain = 0
KWA1 130836Z 06006KT M04/M10 A3045 RMK A01 T10401101  RH  063%=      5-min Rain = 0
KWA1 130837Z 06006KT M04/M10 A3045 RMK A01 T10411101  RH  063%=      5-min Rain = 0
KWA1 130838Z 06006KT M04/M10 A3045 RMK A01 T10411101  RH  063%=      5-min Rain = 0
KWA1 130839Z 06007KT M04/M10 A3045 RMK A01 T10421101  RH  063%=      5-min Rain = 0
KWA1 130840Z 06007KT M04/M10 A3045 RMK A01 T10421101  RH  063%=      5-min Rain = 0
KWA1 130841Z 06007KT M04/M10 A3045 RMK A01 T10411101  RH  063%=      5-min Rain = 0
KWA1 130842Z 06007KT M04/M10 A3045 RMK A01 T10411100  RH  063%=      5-min Rain = 0
KWA1 130843Z 06007KT M04/M10 A3045 RMK A01 T10411101  RH  063%=      5-min Rain = 0
KWA1 130844Z 06007KT M04/M10 A3045 RMK A01 T10411101  RH  063%=      5-min Rain = 0
KWA1 130845Z 06007KT M04/M10 A3046 RMK A01 T10411100  RH  063%=      5-min Rain = 0
KWA1 130846Z 05006KT M04/M10 A3046 RMK A01 T10411100  RH  063%=      5-min Rain = 0
KWA1 130847Z 05006KT M04/M10 A3046 RMK A01 T10411100  RH  064%=      5-min Rain = 0
KWA1 130848Z 05007KT M04/M10 A3046 RMK A01 T10411099  RH  064%=      5-min Rain = 0
KWA1 130849Z 05007KT M04/M10 A3046 RMK A01 T10411099  RH  064%=      5-min Rain = 0
KWA1 130850Z 04007KT M04/M10 A3046 RMK A01 T10411100  RH  063%=      5-min Rain = 0
KWA1 130851Z 05007KT M04/M10 A3046 RMK A01 T10401100  RH  063%=      5-min Rain = 0
KWA1 130852Z 05006KT M04/M10 A3046 RMK A01 T10391100  RH  063%=      5-min Rain = 0
KWA1 130853Z 05006KT M04/M10 A3046 RMK A01 T10381100  RH  062%=      5-min Rain = 0
KWA1 130854Z 04006KT M04/M10 A3046 RMK A01 T10371100  RH  062%=      5-min Rain = 0
KWA1 130855Z 05006KT M04/M10 A3046 RMK A01 T10371100  RH  061%=      5-min Rain = 0
KWA1 130856Z 05006KT M04/M10 A3046 RMK A01 T10361100  RH  061%=      5-min Rain = 0
KWA1 130857Z 05006KT M04/M10 A3046 RMK A01 T10361100  RH  061%=      5-min Rain = 0
KWA1 130858Z 05006KT M04/M10 A3046 RMK A01 T10361100  RH  061%=      5-min Rain = 0
KWA1 130859Z 05006KT M04/M10 A3046 RMK A01 T10361101  RH  061%=      5-min Rain = 0
KWA1 130900Z 04006KT M04/M10 A3046 RMK A01 T10371101  RH  061%=      5-min Rain = 0
KWA1 130901Z 04006KT M04/M10 A3046 RMK A01 T10371101  RH  061%=      5-min Rain = 0
KWA1 130902Z 04006KT M04/M10 A3046 RMK A01 T10361100  RH  061%=      5-min Rain = 0
KWA1 130903Z 04006KT M04/M10 A3046 RMK A01 T10371101  RH  061%=      5-min Rain = 0
KWA1 130904Z 04006KT M04/M10 A3046 RMK A01 T10371101  RH  061%=      5-min Rain = 0
KWA1 130905Z 04006KT M04/M10 A3046 RMK A01 T10371101  RH  061%=      5-min Rain = 0
KWA1 130906Z 04006KT M04/M10 A3046 RMK A01 T10381102  RH  061%=      5-min Rain = 0
KWA1 130907Z 04007KT M04/M10 A3046 RMK A01 T10381103  RH  061%=      5-min Rain = 0
KWA1 130908Z 05007KT M04/M10 A3046 RMK A01 T10381103  RH  061%=      5-min Rain = 0
KWA1 130909Z 05007KT M04/M10 A3046 RMK A01 T10381103  RH  061%=      5-min Rain = 0
KWA1 130910Z 05007KT M04/M10 A3046 RMK A01 T10381104  RH  060%=      5-min Rain = 0
KWA1 130911Z 05007KT M04/M10 A3046 RMK A01 T10401104  RH  061%=      5-min Rain = 0
KWA1 130912Z 05008KT M04/M10 A3046 RMK A01 T10401104  RH  061%=      5-min Rain = 0
KWA1 130913Z 05008KT M04/M10 A3046 RMK A01 T10401104  RH  062%=      5-min Rain = 0
KWA1 130914Z 05008KT M04/M10 A3046 RMK A01 T10401103  RH  062%=      5-min Rain = 0
KWA1 130915Z 05008KT M04/M10 A3046 RMK A01 T10401103  RH  062%=      5-min Rain = 0
KWA1 130916Z 05008KT M04/M10 A3046 RMK A01 T10401104  RH  061%=      5-min Rain = 0
KWA1 130917Z 05007KT M04/M10 A3046 RMK A01 T10401103  RH  062%=      5-min Rain = 0
KWA1 130918Z 05007KT M04/M10 A3046 RMK A01 T10391102  RH  062%=      5-min Rain = 0
KWA1 130919Z 05007KT M04/M10 A3046 RMK A01 T10391101  RH  062%=      5-min Rain = 0
KWA1 130920Z 05008KT M04/M10 A3046 RMK A01 T10391102  RH  062%=      5-min Rain = 0
KWA1 130921Z 05008KT M04/M10 A3046 RMK A01 T10401102  RH  062%=      5-min Rain = 0
KWA1 130922Z 06008KT M04/M10 A3046 RMK A01 T10411102  RH  062%=      5-min Rain = 0
KWA1 130923Z 06008KT M04/M10 A3046 RMK A01 T10401102  RH  062%=      5-min Rain = 0
KWA1 130924Z 06008KT M04/M10 A3046 RMK A01 T10411102  RH  062%=      5-min Rain = 0
KWA1 130925Z 05008KT M04/M10 A3046 RMK A01 T10411102  RH  062%=      5-min Rain = 0
KWA1 130926Z 05008KT M04/M10 A3046 RMK A01 T10411102  RH  062%=      5-min Rain = 0
KWA1 130927Z 06008KT M04/M10 A3046 RMK A01 T10411102  RH  062%=      5-min Rain = 0
KWA1 130928Z 06007KT M04/M10 A3046 RMK A01 T10411102  RH  062%=      5-min Rain = 0
KWA1 130929Z 06007KT M04/M10 A3046 RMK A01 T10411102  RH  063%=      5-min Rain = 0
KWA1 130930Z 06007KT M04/M10 A3046 RMK A01 T10411102  RH  063%=      5-min Rain = 0
KWA1 130931Z 06007KT M04/M10 A3046 RMK A01 T10401101  RH  063%=      5-min Rain = 0
KWA1 130932Z 06007KT M04/M10 A3046 RMK A01 T10401100  RH  063%=      5-min Rain = 0
KWA1 130933Z 06007KT M04/M10 A3046 RMK A01 T10391100  RH  063%=      5-min Rain = 0
KWA1 130934Z 06008KT M04/M10 A3046 RMK A01 T10401101  RH  063%=      5-min Rain = 0
KWA1 130935Z 06008KT M04/M10 A3046 RMK A01 T10401101  RH  063%=      5-min Rain = 0
KWA1 130936Z 06008KT M04/M10 A3046 RMK A01 T10411101  RH  063%=      5-min Rain = 0
KWA1 130937Z 06007KT M04/M10 A3046 RMK A01 T10411101  RH  063%=      5-min Rain = 0
KWA1 130938Z 07007KT M04/M10 A3046 RMK A01 T10411100  RH  063%=      5-min Rain = 0
KWA1 130939Z 07007KT M04/M10 A3046 RMK A01 T10411100  RH  064%=      5-min Rain = 0
KWA1 130940Z 06007KT M04/M10 A3046 RMK A01 T10411100  RH  064%=      5-min Rain = 0
KWA1 130941Z 06007KT M04/M10 A3046 RMK A01 T10401099  RH  063%=      5-min Rain = 0
KWA1 130942Z 06007KT M04/M10 A3046 RMK A01 T10401099  RH  063%=      5-min Rain = 0
KWA1 130943Z 06007KT M04/M10 A3046 RMK A01 T10391099  RH  063%=      5-min Rain = 0
KWA1 130944Z 06007KT M04/M10 A3046 RMK A01 T10391098  RH  063%=      5-min Rain = 0
KWA1 130945Z 06007KT M04/M10 A3046 RMK A01 T10381098  RH  063%=      5-min Rain = 0
KWA1 130946Z 06007KT M04/M10 A3046 RMK A01 T10391098  RH  063%=      5-min Rain = 0
KWA1 130947Z 06007KT M04/M10 A3046 RMK A01 T10391098  RH  063%=      5-min Rain = 0
KWA1 130948Z 06006KT M04/M10 A3046 RMK A01 T10381098  RH  063%=      5-min Rain = 0
KWA1 130949Z 06006KT M04/M10 A3046 RMK A01 T10381098  RH  063%=      5-min Rain = 0
KWA1 130950Z 06006KT M04/M10 A3046 RMK A01 T10391098  RH  063%=      5-min Rain = 0
KWA1 130951Z 06006KT M04/M10 A3046 RMK A01 T10391098  RH  063%=      5-min Rain = 0
KWA1 130952Z 05006KT M04/M10 A3046 RMK A01 T10381097  RH  064%=      5-min Rain = 0
KWA1 130953Z 05005KT M04/M10 A3046 RMK A01 T10391098  RH  064%=      5-min Rain = 0
KWA1 130954Z 06005KT M04/M10 A3046 RMK A01 T10391098  RH  064%=      5-min Rain = 0
KWA1 130955Z 06005KT M04/M10 A3046 RMK A01 T10401098  RH  064%=      5-min Rain = 0
KWA1 130956Z 06005KT M04/M10 A3046 RMK A01 T10401098  RH  064%=      5-min Rain = 0
KWA1 130957Z 06005KT M04/M10 A3046 RMK A01 T10411098  RH  065%=      5-min Rain = 0
KWA1 130958Z 06005KT M04/M10 A3046 RMK A01 T10411098  RH  065%=      5-min Rain = 0
KWA1 130959Z 06005KT M04/M10 A3046 RMK A01 T10411098  RH  065%=      5-min Rain = 0
KWA1 131000Z 06005KT M04/M10 A3046 RMK A01 T10411098  RH  065%=      5-min Rain = 0
KWA1 131001Z 06005KT M04/M10 A3046 RMK A01 T10411098  RH  065%=      5-min Rain = 0
KWA1 131002Z 06004KT M04/M10 A3047 RMK A01 T10421098  RH  065%=      5-min Rain = 0
KWA1 131003Z 06005KT M04/M10 A3047 RMK A01 T10421098  RH  065%=      5-min Rain = 0
KWA1 131004Z 06004KT M04/M10 A3047 RMK A01 T10421098  RH  065%=      5-min Rain = 0
KWA1 131005Z 06004KT M04/M10 A3047 RMK A01 T10421098  RH  065%=      5-min Rain = 0
KWA1 131006Z 06004KT M04/M10 A3047 RMK A01 T10431099  RH  065%=      5-min Rain = 0
KWA1 131007Z 05004KT M04/M10 A3047 RMK A01 T10431099  RH  065%=      5-min Rain = 0
KWA1 131008Z 05004KT M04/M10 A3047 RMK A01 T10431099  RH  065%=      5-min Rain = 0
KWA1 131009Z 04004KT M04/M10 A3048 RMK A01 T10431098  RH  066%=      5-min Rain = 0
KWA1 131010Z 04005KT M04/M10 A3048 RMK A01 T10431099  RH  065%=      5-min Rain = 0
KWA1 131011Z 03004KT M04/M10 A3048 RMK A01 T10431099  RH  065%=      5-min Rain = 0
KWA1 131012Z 03004KT M04/M10 A3048 RMK A01 T10441100  RH  065%=      5-min Rain = 0
KWA1 131013Z 03004KT M05/M10 A3048 RMK A01 T10451102  RH  065%=      5-min Rain = 0
KWA1 131014Z 03004KT M05/M10 A3048 RMK A01 T10461103  RH  065%=      5-min Rain = 0
KWA1 131015Z 03004KT M05/M11 A3048 RMK A01 T10471106  RH  064%=      5-min Rain = 0
KWA1 131016Z 03005KT M05/M11 A3048 RMK A01 T10471106  RH  063%=      5-min Rain = 0
KWA1 131017Z 03006KT M05/M11 A3048 RMK A01 T10471106  RH  064%=      5-min Rain = 0
KWA1 131018Z 04006KT M05/M11 A3048 RMK A01 T10481106  RH  064%=      5-min Rain = 0
KWA1 131019Z 04006KT M05/M11 A3048 RMK A01 T10481105  RH  064%=      5-min Rain = 0
KWA1 131020Z 04006KT M05/M10 A3048 RMK A01 T10471104  RH  065%=      5-min Rain = 0
KWA1 131021Z 04005KT M05/M10 A3048 RMK A01 T10481104  RH  065%=      5-min Rain = 0
KWA1 131022Z 04005KT M05/M10 A3048 RMK A01 T10471103  RH  065%=      5-min Rain = 0
KWA1 131023Z 04005KT M05/M10 A3048 RMK A01 T10471103  RH  065%=      5-min Rain = 0
KWA1 131024Z 04005KT M05/M10 A3048 RMK A01 T10461102  RH  065%=      5-min Rain = 0
KWA1 131025Z 04005KT M05/M10 A3048 RMK A01 T10461102  RH  065%=      5-min Rain = 0
KWA1 131026Z 04005KT M05/M10 A3048 RMK A01 T10451102  RH  065%=      5-min Rain = 0
KWA1 131027Z 04005KT M05/M10 A3048 RMK A01 T10451101  RH  065%=      5-min Rain = 0
KWA1 131028Z 05005KT M05/M10 A3048 RMK A01 T10451101  RH  065%=      5-min Rain = 0
KWA1 131029Z 05005KT M05/M10 A3048 RMK A01 T10451102  RH  065%=      5-min Rain = 0
KWA1 131030Z 05005KT M05/M10 A3048 RMK A01 T10451102  RH  065%=      5-min Rain = 0
KWA1 131031Z 05005KT M05/M10 A3048 RMK A01 T10461103  RH  064%=      5-min Rain = 0
KWA1 131032Z 05005KT M05/M10 A3048 RMK A01 T10471104  RH  065%=      5-min Rain = 0
KWA1 131033Z 04005KT M05/M10 A3048 RMK A01 T10481104  RH  065%=      5-min Rain = 0
KWA1 131034Z 04005KT M05/M10 A3048 RMK A01 T10481104  RH  065%=      5-min Rain = 0
KWA1 131035Z 04005KT M05/M10 A3049 RMK A01 T10491104  RH  065%=      5-min Rain = 0
KWA1 131036Z 04005KT M05/M10 A3049 RMK A01 T10491104  RH  065%=      5-min Rain = 0
KWA1 131037Z 03004KT M05/M11 A3049 RMK A01 T10501105  RH  066%=      5-min Rain = 0
KWA1 131038Z 03004KT M05/M11 A3049 RMK A01 T10511105  RH  066%=      5-min Rain = 0
KWA1 131039Z 03004KT M05/M10 A3049 RMK A01 T10521104  RH  067%=      5-min Rain = 0
KWA1 131040Z 02005KT M05/M10 A3049 RMK A01 T10531104  RH  067%=      5-min Rain = 0
KWA1 131041Z 03005KT M05/M10 A3049 RMK A01 T10541104  RH  068%=      5-min Rain = 0
KWA1 131042Z 02005KT M05/M10 A3049 RMK A01 T10541104  RH  068%=      5-min Rain = 0
KWA1 131043Z 02005KT M05/M10 A3049 RMK A01 T10541103  RH  069%=      5-min Rain = 0
KWA1 131044Z 02004KT M05/M10 A3049 RMK A01 T10531102  RH  069%=      5-min Rain = 0
KWA1 131045Z 02004KT M05/M10 A3049 RMK A01 T10531102  RH  068%=      5-min Rain = 0
KWA1 131046Z 02005KT M05/M10 A3049 RMK A01 T10531103  RH  068%=      5-min Rain = 0
KWA1 131047Z 01004KT M05/M10 A3049 RMK A01 T10531104  RH  068%=      5-min Rain = 0
KWA1 131048Z 01004KT M05/M10 A3049 RMK A01 T10531104  RH  067%=      5-min Rain = 0
KWA1 131049Z 01004KT M05/M10 A3049 RMK A01 T10541104  RH  068%=      5-min Rain = 0
KWA1 131050Z 00003KT M05/M10 A3049 RMK A01 T10541103  RH  068%=      5-min Rain = 0
KWA1 131051Z 00003KT M06/M10 A3049 RMK A01 T10551104  RH  069%=      5-min Rain = 0
KWA1 131052Z 36003KT M06/M10 A3049 RMK A01 T10561104  RH  069%=      5-min Rain = 0
KWA1 131053Z 35002KT M06/M10 A3049 RMK A01 T10571104  RH  069%=      5-min Rain = 0
KWA1 131054Z 35002KT M06/M10 A3049 RMK A01 T10561103  RH  069%=      5-min Rain = 0
KWA1 131055Z 35002KT M05/M10 A3049 RMK A01 T10541103  RH  069%=      5-min Rain = 0
KWA1 131056Z 35002KT M05/M10 A3049 RMK A01 T10531103  RH  068%=      5-min Rain = 0
KWA1 131057Z 35002KT M06/M11 A3049 RMK A01 T10551105  RH  068%=      5-min Rain = 0
KWA1 131058Z 35002KT M06/M11 A3049 RMK A01 T10581107  RH  068%=      5-min Rain = 0
KWA1 131059Z 35002KT M06/M11 A3049 RMK A01 T10591106  RH  069%=      5-min Rain = 0
KWA1 131100Z 35002KT M06/M11 A3049 RMK A01 T10601106  RH  070%=      5-min Rain = 0
KWA1 131101Z 34002KT M06/M11 A305 RMK A01 T10601106  RH  070%=      5-min Rain = 0
KWA1 131102Z 34002KT M06/M11 A305 RMK A01 T10611106  RH  071%=      5-min Rain = 0
KWA1 131103Z 34003KT M06/M11 A305 RMK A01 T10621106  RH  071%=      5-min Rain = 0
KWA1 131104Z 34003KT M06/M11 A305 RMK A01 T10621106  RH  071%=      5-min Rain = 0
KWA1 131105Z 34003KT M06/M11 A305 RMK A01 T10621106  RH  071%=      5-min Rain = 0
KWA1 131106Z 34003KT M06/M11 A305 RMK A01 T10631105  RH  072%=      5-min Rain = 0
KWA1 131107Z 33003KT M06/M10 A305 RMK A01 T10631104  RH  072%=      5-min Rain = 0
KWA1 131108Z 33003KT M06/M10 A305 RMK A01 T10631104  RH  072%=      5-min Rain = 0
KWA1 131109Z 33003KT M06/M10 A305 RMK A01 T10621104  RH  072%=      5-min Rain = 0
KWA1 131110Z 34003KT M06/M10 A305 RMK A01 T10621104  RH  072%=      5-min Rain = 0
KWA1 131111Z 34003KT M06/M11 A305 RMK A01 T10621105  RH  071%=      5-min Rain = 0
KWA1 131112Z 34003KT M06/M11 A305 RMK A01 T10621106  RH  071%=      5-min Rain = 0
KWA1 131113Z 34003KT M06/M11 A305 RMK A01 T10631106  RH  072%=      5-min Rain = 0
KWA1 131114Z 35004KT M06/M11 A305 RMK A01 T10641106  RH  072%=      5-min Rain = 0
KWA1 131115Z 35004KT M07/M11 A305 RMK A01 T10651105  RH  073%=      5-min Rain = 0
KWA1 131116Z 36005KT M07/M11 A305 RMK A01 T10651105  RH  073%=      5-min Rain = 0
KWA1 131117Z 00005KT M06/M10 A3051 RMK A01 T10641104  RH  073%=      5-min Rain = 0
KWA1 131118Z 01005KT M06/M10 A3051 RMK A01 T10621103  RH  072%=      5-min Rain = 0
KWA1 131119Z 02005KT M06/M10 A305 RMK A01 T10611104  RH  072%=      5-min Rain = 0
KWA1 131120Z 02005KT M06/M10 A305 RMK A01 T10601104  RH  071%=      5-min Rain = 0
KWA1 131121Z 02005KT M06/M10 A305 RMK A01 T10601104  RH  071%=      5-min Rain = 0
KWA1 131122Z 02005KT M06/M10 A305 RMK A01 T10601103  RH  072%=      5-min Rain = 0
KWA1 131123Z 02005KT M06/M10 A305 RMK A01 T10601104  RH  072%=      5-min Rain = 0
KWA1 131124Z 02005KT M06/M10 A305 RMK A01 T10601104  RH  071%=      5-min Rain = 0
KWA1 131125Z 02005KT M06/M11 A3051 RMK A01 T10611105  RH  071%=      5-min Rain = 0
KWA1 131126Z 02005KT M06/M11 A3051 RMK A01 T10621105  RH  071%=      5-min Rain = 0
KWA1 131127Z 02005KT M06/M10 A3051 RMK A01 T10621104  RH  072%=      5-min Rain = 0
KWA1 131128Z 02005KT M06/M10 A3051 RMK A01 T10611104  RH  072%=      5-min Rain = 0
KWA1 131129Z 02005KT M06/M10 A3051 RMK A01 T10611104  RH  071%=      5-min Rain = 0
KWA1 131130Z 02005KT M06/M11 A3051 RMK A01 T10611105  RH  071%=      5-min Rain = 0
KWA1 131131Z 02005KT M06/M11 A3051 RMK A01 T10611105  RH  071%=      5-min Rain = 0
KWA1 131132Z 02005KT M06/M11 A3051 RMK A01 T10601105  RH  071%=      5-min Rain = 0
KWA1 131133Z 02005KT M06/M11 A3051 RMK A01 T10601105  RH  071%=      5-min Rain = 0
KWA1 131134Z 02005KT M06/M10 A3051 RMK A01 T10601104  RH  071%=      5-min Rain = 0
KWA1 131135Z 02005KT M06/M10 A3051 RMK A01 T10601103  RH  071%=      5-min Rain = 0
KWA1 131136Z 03005KT M06/M10 A3051 RMK A01 T10591103  RH  071%=      5-min Rain = 0
KWA1 131137Z 03004KT M06/M10 A3051 RMK A01 T10591103  RH  071%=      5-min Rain = 0
KWA1 131138Z 03005KT M06/M10 A3051 RMK A01 T10581102  RH  071%=      5-min Rain = 0
KWA1 131139Z 03005KT M06/M10 A3051 RMK A01 T10581103  RH  071%=      5-min Rain = 0
KWA1 131140Z 03004KT M06/M10 A3051 RMK A01 T10591104  RH  071%=      5-min Rain = 0
KWA1 131141Z 03004KT M06/M10 A3051 RMK A01 T10611104  RH  071%=      5-min Rain = 0
KWA1 131142Z 02005KT M06/M10 A3051 RMK A01 T10611103  RH  072%=      5-min Rain = 0
KWA1 131143Z 02005KT M06/M10 A3051 RMK A01 T10611103  RH  072%=      5-min Rain = 0
KWA1 131144Z 03005KT M06/M10 A3051 RMK A01 T10611103  RH  072%=      5-min Rain = 0
KWA1 131145Z 03005KT M06/M10 A3051 RMK A01 T10611103  RH  072%=      5-min Rain = 0
KWA1 131146Z 03005KT M06/M10 A3051 RMK A01 T10611103  RH  072%=      5-min Rain = 0
KWA1 131147Z 03005KT M06/M10 A3051 RMK A01 T10601102  RH  072%=      5-min Rain = 0
KWA1 131148Z 04005KT M06/M10 A3051 RMK A01 T10601102  RH  072%=      5-min Rain = 0
KWA1 131149Z 04005KT M06/M10 A3051 RMK A01 T10601102  RH  072%=      5-min Rain = 0
KWA1 131150Z 04005KT M06/M10 A3051 RMK A01 T10601101  RH  072%=      5-min Rain = 0
KWA1 131151Z 04005KT M06/M10 A3051 RMK A01 T10601102  RH  073%=      5-min Rain = 0
KWA1 131152Z 05004KT M06/M10 A3051 RMK A01 T10611102  RH  073%=      5-min Rain = 0
KWA1 131153Z 05004KT M06/M10 A3051 RMK A01 T10611102  RH  073%=      5-min Rain = 0
KWA1 131154Z 05004KT M06/M10 A3051 RMK A01 T10611102  RH  073%=      5-min Rain = 0
KWA1 131155Z 04004KT M06/M10 A3051 RMK A01 T10611102  RH  073%=      5-min Rain = 0
KWA1 131156Z 04004KT M06/M10 A3051 RMK A01 T10611102  RH  073%=      5-min Rain = 0
KWA1 131157Z 04003KT M06/M10 A3052 RMK A01 T10601102  RH  073%=      5-min Rain = 0
KWA1 131158Z 04003KT M06/M10 A3052 RMK A01 T10601102  RH  073%=      5-min Rain = 0
KWA1 131159Z 04003KT M06/M10 A3052 RMK A01 T10601102  RH  072%=      5-min Rain = 0
KWA1 131200Z 05003KT M06/M10 A3052 RMK A01 T10601102  RH  073%=      5-min Rain = 0
KWA1 131201Z 05003KT M06/M10 A3052 RMK A01 T10601101  RH  073%=      5-min Rain = 0
KWA1 131202Z 05003KT M06/M10 A3052 RMK A01 T10591101  RH  072%=      5-min Rain = 0
KWA1 131203Z 05003KT M06/M10 A3052 RMK A01 T10591101  RH  072%=      5-min Rain = 0
KWA1 131204Z 05003KT M06/M10 A3052 RMK A01 T10591101  RH  072%=      5-min Rain = 0
KWA1 131205Z 05003KT M06/M10 A3052 RMK A01 T10591102  RH  072%=      5-min Rain = 0
KWA1 131206Z 05003KT M06/M10 A3052 RMK A01 T10591102  RH  072%=      5-min Rain = 0
KWA1 131207Z 05003KT M06/M10 A3052 RMK A01 T10591101  RH  072%=      5-min Rain = 0
KWA1 131208Z 05003KT M06/M10 A3052 RMK A01 T10591101  RH  072%=      5-min Rain = 0
KWA1 131209Z 05003KT M06/M10 A3052 RMK A01 T10591101  RH  072%=      5-min Rain = 0
KWA1 131210Z 05003KT M06/M10 A3052 RMK A01 T10591102  RH  072%=      5-min Rain = 0
KWA1 131211Z 04003KT M06/M10 A3052 RMK A01 T10581101  RH  072%=      5-min Rain = 0
KWA1 131212Z 05003KT M06/M10 A3052 RMK A01 T10591102  RH  072%=      5-min Rain = 0
KWA1 131213Z 05004KT M06/M10 A3052 RMK A01 T10591102  RH  071%=      5-min Rain = 0
KWA1 131214Z 05004KT M06/M10 A3052 RMK A01 T10591102  RH  071%=      5-min Rain = 0
KWA1 131215Z 05004KT M06/M10 A3052 RMK A01 T10581102  RH  071%=      5-min Rain = 0
KWA1 131216Z 05004KT M06/M10 A3052 RMK A01 T10591103  RH  071%=      5-min Rain = 0
KWA1 131217Z 05004KT M06/M10 A3052 RMK A01 T10581102  RH  071%=      5-min Rain = 0
KWA1 131218Z 05004KT M06/M10 A3052 RMK A01 T10581102  RH  071%=      5-min Rain = 0
KWA1 131219Z 05004KT M06/M10 A3052 RMK A01 T10581102  RH  071%=      5-min Rain = 0
KWA1 131220Z 05004KT M06/M10 A3052 RMK A01 T10581102  RH  071%=      5-min Rain = 0
KWA1 131221Z 05004KT M06/M10 A3052 RMK A01 T10581102  RH  071%=      5-min Rain = 0
KWA1 131222Z 05004KT M06/M10 A3052 RMK A01 T10581102  RH  071%=      5-min Rain = 0
KWA1 131223Z 05004KT M06/M10 A3052 RMK A01 T10571102  RH  071%=      5-min Rain = 0
KWA1 131224Z 05005KT M06/M10 A3053 RMK A01 T10581102  RH  071%=      5-min Rain = 0
KWA1 131225Z 05005KT M06/M10 A3053 RMK A01 T10581102  RH  071%=      5-min Rain = 0
KWA1 131226Z 05005KT M06/M10 A3053 RMK A01 T10581102  RH  071%=      5-min Rain = 0
KWA1 131227Z 05005KT M06/M10 A3053 RMK A01 T10581102  RH  071%=      5-min Rain = 0
KWA1 131228Z 05005KT M06/M10 A3053 RMK A01 T10581102  RH  071%=      5-min Rain = 0
KWA1 131229Z 05005KT M06/M10 A3053 RMK A01 T10591103  RH  071%=      5-min Rain = 0
KWA1 131230Z 04005KT M06/M10 A3053 RMK A01 T10591103  RH  071%=      5-min Rain = 0
KWA1 131231Z 04005KT M06/M10 A3053 RMK A01 T10601103  RH  072%=      5-min Rain = 0
KWA1 131232Z 04005KT M06/M10 A3053 RMK A01 T10601103  RH  072%=      5-min Rain = 0
KWA1 131233Z 04005KT M06/M10 A3054 RMK A01 T10611103  RH  072%=      5-min Rain = 0
KWA1 131234Z 04005KT M06/M10 A3054 RMK A01 T10611103  RH  072%=      5-min Rain = 0
KWA1 131235Z 04005KT M06/M10 A3054 RMK A01 T10621103  RH  072%=      5-min Rain = 0
KWA1 131236Z 04005KT M06/M10 A3054 RMK A01 T10621103  RH  073%=      5-min Rain = 0
KWA1 131237Z 04005KT M06/M10 A3054 RMK A01 T10621103  RH  073%=      5-min Rain = 0
KWA1 131238Z 04005KT M06/M10 A3054 RMK A01 T10621103  RH  073%=      5-min Rain = 0
KWA1 131239Z 04006KT M06/M10 A3054 RMK A01 T10621103  RH  073%=      5-min Rain = 0
KWA1 131240Z 04006KT M06/M10 A3054 RMK A01 T10621103  RH  073%=      5-min Rain = 0
KWA1 131241Z 04006KT M06/M10 A3054 RMK A01 T10611103  RH  073%=      5-min Rain = 0
KWA1 131242Z 04006KT M06/M10 A3054 RMK A01 T10611103  RH  072%=      5-min Rain = 0
KWA1 131243Z 04006KT M06/M10 A3054 RMK A01 T10611103  RH  072%=      5-min Rain = 0
KWA1 131244Z 04006KT M06/M10 A3054 RMK A01 T10611103  RH  072%=      5-min Rain = 0
KWA1 131245Z 04006KT M06/M10 A3054 RMK A01 T10611104  RH  072%=      5-min Rain = 0
KWA1 131246Z 04006KT M06/M10 A3054 RMK A01 T10611104  RH  072%=      5-min Rain = 0
KWA1 131247Z 04005KT M06/M10 A3054 RMK A01 T10611104  RH  072%=      5-min Rain = 0
KWA1 131248Z 04005KT M06/M10 A3054 RMK A01 T10611103  RH  072%=      5-min Rain = 0
KWA1 131249Z 04005KT M06/M10 A3055 RMK A01 T10611103  RH  072%=      5-min Rain = 0
KWA1 131250Z 04005KT M06/M10 A3055 RMK A01 T10611103  RH  072%=      5-min Rain = 0
KWA1 131251Z 04005KT M06/M10 A3055 RMK A01 T10611102  RH  072%=      5-min Rain = 0
KWA1 131252Z 03005KT M06/M10 A3055 RMK A01 T10601102  RH  072%=      5-min Rain = 0
KWA1 131253Z 03005KT M06/M10 A3055 RMK A01 T10611103  RH  072%=      5-min Rain = 0
KWA1 131254Z 03005KT M06/M10 A3055 RMK A01 T10611104  RH  072%=      5-min Rain = 0
KWA1 131255Z 03006KT M06/M10 A3055 RMK A01 T10611103  RH  072%=      5-min Rain = 0
KWA1 131256Z 03006KT M06/M10 A3055 RMK A01 T10621103  RH  073%=      5-min Rain = 0
KWA1 131257Z 03005KT M06/M10 A3055 RMK A01 T10621103  RH  073%=      5-min Rain = 0
KWA1 131258Z 03005KT M06/M10 A3055 RMK A01 T10631103  RH  073%=      5-min Rain = 0
KWA1 131259Z 03006KT M06/M10 A3055 RMK A01 T10631103  RH  073%=      5-min Rain = 0
KWA1 131300Z 03005KT M06/M10 A3055 RMK A01 T10631103  RH  073%=      5-min Rain = 0
KWA1 131301Z 03005KT M06/M10 A3055 RMK A01 T10641103  RH  073%=      5-min Rain = 0
KWA1 131302Z 03005KT M07/M10 A3055 RMK A01 T10651104  RH  074%=      5-min Rain = 0
KWA1 131303Z 03005KT M07/M10 A3055 RMK A01 T10651103  RH  074%=      5-min Rain = 0
KWA1 131304Z 03005KT M07/M10 A3056 RMK A01 T10651103  RH  074%=      5-min Rain = 0
KWA1 131305Z 03005KT M07/M10 A3056 RMK A01 T10651103  RH  074%=      5-min Rain = 0
KWA1 131306Z 03005KT M07/M10 A3056 RMK A01 T10651103  RH  074%=      5-min Rain = 0
KWA1 131307Z 03005KT M07/M10 A3056 RMK A01 T10651103  RH  075%=      5-min Rain = 0
KWA1 131308Z 03005KT M07/M10 A3056 RMK A01 T10651103  RH  075%=      5-min Rain = 0
KWA1 131309Z 03005KT M07/M10 A3056 RMK A01 T10651103  RH  075%=      5-min Rain = 0
KWA1 131310Z 03005KT M07/M10 A3056 RMK A01 T10651103  RH  075%=      5-min Rain = 0
KWA1 131311Z 03005KT M07/M10 A3056 RMK A01 T10651103  RH  075%=      5-min Rain = 0
KWA1 131312Z 03004KT M07/M10 A3056 RMK A01 T10651103  RH  075%=      5-min Rain = 0
KWA1 131313Z 04004KT M07/M10 A3056 RMK A01 T10651103  RH  075%=      5-min Rain = 0
KWA1 131314Z 04004KT M07/M10 A3056 RMK A01 T10651103  RH  075%=      5-min Rain = 0
KWA1 131315Z 04004KT M07/M10 A3056 RMK A01 T10651103  RH  075%=      5-min Rain = 0
KWA1 131316Z 04004KT M07/M10 A3056 RMK A01 T10651103  RH  075%=      5-min Rain = 0
KWA1 131317Z 04004KT M07/M10 A3056 RMK A01 T10651103  RH  075%=      5-min Rain = 0
KWA1 131318Z 04005KT M07/M10 A3056 RMK A01 T10651103  RH  075%=      5-min Rain = 0
KWA1 131319Z 04005KT M07/M10 A3056 RMK A01 T10651103  RH  075%=      5-min Rain = 0
KWA1 131320Z 04005KT M07/M10 A3056 RMK A01 T10651103  RH  075%=      5-min Rain = 0
KWA1 131321Z 04005KT M07/M10 A3056 RMK A01 T10651103  RH  075%=      5-min Rain = 0
KWA1 131322Z 04005KT M07/M10 A3056 RMK A01 T10651103  RH  075%=      5-min Rain = 0
KWA1 131323Z 04005KT M07/M10 A3056 RMK A01 T10651103  RH  075%=      5-min Rain = 0
KWA1 131324Z 04005KT M07/M10 A3056 RMK A01 T10661103  RH  075%=      5-min Rain = 0
KWA1 131325Z 04005KT M07/M10 A3056 RMK A01 T10651103  RH  075%=      5-min Rain = 0
KWA1 131326Z 04005KT M07/M10 A3056 RMK A01 T10651103  RH  075%=      5-min Rain = 0
KWA1 131327Z 04005KT M07/M10 A3056 RMK A01 T10651103  RH  075%=      5-min Rain = 0
KWA1 131328Z 04005KT M07/M10 A3056 RMK A01 T10651103  RH  075%=      5-min Rain = 0
KWA1 131329Z 04005KT M07/M10 A3056 RMK A01 T10651103  RH  075%=      5-min Rain = 0
KWA1 131330Z 03005KT M07/M10 A3056 RMK A01 T10661103  RH  075%=      5-min Rain = 0
KWA1 131331Z 03005KT M07/M10 A3056 RMK A01 T10651103  RH  075%=      5-min Rain = 0
KWA1 131332Z 03005KT M07/M10 A3056 RMK A01 T10651103  RH  075%=      5-min Rain = 0
KWA1 131333Z 03006KT M07/M10 A3057 RMK A01 T10651103  RH  074%=      5-min Rain = 0
KWA1 131334Z 03006KT M07/M10 A3057 RMK A01 T10651103  RH  074%=      5-min Rain = 0
KWA1 131335Z 03006KT M06/M10 A3057 RMK A01 T10641103  RH  074%=      5-min Rain = 0
KWA1 131336Z 03006KT M06/M10 A3057 RMK A01 T10641103  RH  074%=      5-min Rain = 0
KWA1 131337Z 03005KT M07/M10 A3057 RMK A01 T10651103  RH  074%=      5-min Rain = 0
KWA1 131338Z 03005KT M07/M10 A3057 RMK A01 T10651103  RH  074%=      5-min Rain = 0
KWA1 131339Z 03005KT M07/M10 A3057 RMK A01 T10651103  RH  074%=      5-min Rain = 0
KWA1 131340Z 03005KT M07/M10 A3057 RMK A01 T10661103  RH  075%=      5-min Rain = 0
KWA1 131341Z 04005KT M07/M10 A3057 RMK A01 T10661103  RH  075%=      5-min Rain = 0
KWA1 131342Z 04005KT M07/M10 A3056 RMK A01 T10661103  RH  075%=      5-min Rain = 0
KWA1 131343Z 04006KT M07/M10 A3056 RMK A01 T10661103  RH  075%=      5-min Rain = 0
KWA1 131344Z 04006KT M07/M10 A3056 RMK A01 T10651102  RH  075%=      5-min Rain = 0
KWA1 131345Z 04006KT M06/M10 A3056 RMK A01 T10641102  RH  075%=      5-min Rain = 0
KWA1 131346Z 04005KT M06/M10 A3056 RMK A01 T10641102  RH  075%=      5-min Rain = 0
KWA1 131347Z 04005KT M07/M10 A3056 RMK A01 T10651102  RH  075%=      5-min Rain = 0
KWA1 131348Z 04005KT M07/M10 A3056 RMK A01 T10651103  RH  075%=      5-min Rain = 0
KWA1 131349Z 04005KT M07/M10 A3056 RMK A01 T10661103  RH  075%=      5-min Rain = 0
KWA1 131350Z 04005KT M07/M10 A3056 RMK A01 T10651103  RH  075%=      5-min Rain = 0
KWA1 131351Z 04005KT M07/M10 A3056 RMK A01 T10651103  RH  075%=      5-min Rain = 0
KWA1 131352Z 04005KT M07/M10 A3057 RMK A01 T10651103  RH  075%=      5-min Rain = 0
KWA1 131353Z 04005KT M07/M10 A3056 RMK A01 T10651103  RH  075%=      5-min Rain = 0
KWA1 131354Z 04005KT M07/M10 A3056 RMK A01 T10651102  RH  075%=      5-min Rain = 0
KWA1 131355Z 04005KT M06/M10 A3056 RMK A01 T10641102  RH  075%=      5-min Rain = 0
KWA1 131356Z 04005KT M06/M10 A3056 RMK A01 T10641101  RH  075%=      5-min Rain = 0
KWA1 131357Z 04005KT M06/M10 A3057 RMK A01 T10631101  RH  075%=      5-min Rain = 0
KWA1 131358Z 04005KT M06/M10 A3056 RMK A01 T10621101  RH  074%=      5-min Rain = 0
KWA1 131359Z 04005KT M06/M10 A3056 RMK A01 T10621100  RH  074%=      5-min Rain = 0
KWA1 131400Z 04005KT M06/M10 A3056 RMK A01 T10621100  RH  074%=      5-min Rain = 0
KWA1 131401Z 04005KT M06/M10 A3057 RMK A01 T10611100  RH  074%=      5-min Rain = 0
KWA1 131402Z 04005KT M06/M10 A3057 RMK A01 T10611100  RH  074%=      5-min Rain = 0
KWA1 131403Z 04005KT M06/M10 A3057 RMK A01 T10601099  RH  074%=      5-min Rain = 0
KWA1 131404Z 04005KT M06/M10 A3057 RMK A01 T10601099  RH  074%=      5-min Rain = 0
KWA1 131405Z 04005KT M06/M10 A3057 RMK A01 T10591099  RH  073%=      5-min Rain = 0
KWA1 131406Z 04005KT M06/M10 A3057 RMK A01 T10591099  RH  073%=      5-min Rain = 0
KWA1 131407Z 04005KT M06/M10 A3057 RMK A01 T10571099  RH  073%=      5-min Rain = 0
KWA1 131408Z 04005KT M06/M10 A3057 RMK A01 T10571099  RH  072%=      5-min Rain = 0
KWA1 131409Z 04005KT M06/M10 A3057 RMK A01 T10561100  RH  072%=      5-min Rain = 0
KWA1 131410Z 04005KT M06/M10 A3057 RMK A01 T10561100  RH  071%=      5-min Rain = 0
KWA1 131411Z 04005KT M06/M10 A3057 RMK A01 T10551100  RH  071%=      5-min Rain = 0
KWA1 131412Z 04004KT M06/M10 A3057 RMK A01 T10551099  RH  071%=      5-min Rain = 0
KWA1 131413Z 04004KT M06/M10 A3058 RMK A01 T10551099  RH  071%=      5-min Rain = 0
KWA1 131414Z 04004KT M05/M10 A3058 RMK A01 T10541100  RH  070%=      5-min Rain = 0
KWA1 131415Z 04004KT M05/M10 A3058 RMK A01 T10541100  RH  070%=      5-min Rain = 0
KWA1 131416Z 04004KT M05/M10 A3058 RMK A01 T10531099  RH  070%=      5-min Rain = 0
KWA1 131417Z 04003KT M05/M10 A3058 RMK A01 T10521098  RH  070%=      5-min Rain = 0
KWA1 131418Z 04003KT M05/M10 A3058 RMK A01 T10511097  RH  070%=      5-min Rain = 0
KWA1 131419Z 04003KT M05/M10 A3058 RMK A01 T10501096  RH  070%=      5-min Rain = 0
KWA1 131420Z 04004KT M05/M10 A3058 RMK A01 T10501098  RH  069%=      5-min Rain = 0
KWA1 131421Z 04004KT M05/M10 A3058 RMK A01 T10491099  RH  069%=      5-min Rain = 0
KWA1 131422Z 04004KT M05/M10 A3058 RMK A01 T10491097  RH  069%=      5-min Rain = 0
KWA1 131423Z 04004KT M05/M10 A3058 RMK A01 T10481097  RH  069%=      5-min Rain = 0
KWA1 131424Z 04003KT M05/M10 A3058 RMK A01 T10481097  RH  068%=      5-min Rain = 0
KWA1 131425Z 04004KT M05/M10 A3058 RMK A01 T10471098  RH  068%=      5-min Rain = 0
KWA1 131426Z 04003KT M05/M10 A3058 RMK A01 T10461097  RH  067%=      5-min Rain = 0
KWA1 131427Z 04003KT M05/M10 A3059 RMK A01 T10451095  RH  068%=      5-min Rain = 0
KWA1 131428Z 04004KT M05/M09 A3059 RMK A01 T10451094  RH  068%=      5-min Rain = 0
KWA1 131429Z 03004KT M04/M10 A3059 RMK A01 T10441095  RH  068%=      5-min Rain = 0
KWA1 131430Z 03004KT M04/M10 A3059 RMK A01 T10431096  RH  067%=      5-min Rain = 0
KWA1 131431Z 03004KT M04/M10 A3059 RMK A01 T10431096  RH  066%=      5-min Rain = 0
KWA1 131432Z 03004KT M04/M10 A3059 RMK A01 T10421096  RH  066%=      5-min Rain = 0
KWA1 131433Z 04004KT M04/M10 A3059 RMK A01 T10421096  RH  066%=      5-min Rain = 0
KWA1 131434Z 03003KT M04/M09 A3059 RMK A01 T10411094  RH  066%=      5-min Rain = 0
KWA1 131435Z 03004KT M04/M09 A3059 RMK A01 T10401094  RH  066%=      5-min Rain = 0
KWA1 131436Z 04004KT M04/M10 A3059 RMK A01 T10401095  RH  066%=      5-min Rain = 0
KWA1 131437Z 03004KT M04/M10 A3059 RMK A01 T10391095  RH  065%=      5-min Rain = 0
KWA1 131438Z 03004KT M04/M10 A3059 RMK A01 T10391096  RH  064%=      5-min Rain = 0
KWA1 131439Z 03004KT M04/M10 A3059 RMK A01 T10391097  RH  064%=      5-min Rain = 0
KWA1 131440Z 03004KT M04/M10 A3059 RMK A01 T10391097  RH  064%=      5-min Rain = 0
KWA1 131441Z 03004KT M04/M10 A3059 RMK A01 T10381095  RH  065%=      5-min Rain = 0
KWA1 131442Z 03005KT M04/M09 A3059 RMK A01 T10371094  RH  064%=      5-min Rain = 0
KWA1 131443Z 03005KT M04/M10 A3059 RMK A01 T10371095  RH  064%=      5-min Rain = 0
KWA1 131444Z 03004KT M04/M10 A3059 RMK A01 T10371095  RH  064%=      5-min Rain = 0
KWA1 131445Z 03004KT M04/M09 A3059 RMK A01 T10361094  RH  064%=      5-min Rain = 0
KWA1 131446Z 03005KT M04/M09 A3059 RMK A01 T10351093  RH  064%=      5-min Rain = 0
KWA1 131447Z 03005KT M04/M10 A3059 RMK A01 T10351095  RH  063%=      5-min Rain = 0
KWA1 131448Z 03005KT M04/M10 A3059 RMK A01 T10351095  RH  063%=      5-min Rain = 0
KWA1 131449Z 03006KT M04/M09 A3059 RMK A01 T10351094  RH  063%=      5-min Rain = 0
KWA1 131450Z 03005KT M03/M09 A3059 RMK A01 T10341094  RH  063%=      5-min Rain = 0
KWA1 131451Z 03006KT M03/M10 A3059 RMK A01 T10331095  RH  062%=      5-min Rain = 0
KWA1 131452Z 03005KT M03/M09 A3059 RMK A01 T10331094  RH  063%=      5-min Rain = 0
KWA1 131453Z 04006KT M03/M09 A3059 RMK A01 T10321092  RH  064%=      5-min Rain = 0
KWA1 131454Z 04006KT M03/M09 A3059 RMK A01 T10321093  RH  063%=      5-min Rain = 0
KWA1 131455Z 04007KT M03/M09 A3059 RMK A01 T10311093  RH  062%=      5-min Rain = 0
KWA1 131456Z 04006KT M03/M09 A3059 RMK A01 T10301094  RH  061%=      5-min Rain = 0
KWA1 131457Z 04006KT M03/M10 A3059 RMK A01 T10301095  RH  061%=      5-min Rain = 0
KWA1 131458Z 04006KT M03/M09 A3059 RMK A01 T10291094  RH  061%=      5-min Rain = 0
KWA1 131459Z 04005KT M03/M09 A3059 RMK A01 T10291094  RH  061%=      5-min Rain = 0
KWA1 131500Z 04006KT M03/M09 A3059 RMK A01 T10271093  RH  061%=      5-min Rain = 0
KWA1 131501Z 05007KT M03/M09 A3059 RMK A01 T10271093  RH  061%=      5-min Rain = 0
KWA1 131502Z 05007KT M03/M09 A3059 RMK A01 T10261094  RH  060%=      5-min Rain = 0
KWA1 131503Z 05007KT M03/M10 A3059 RMK A01 T10261095  RH  059%=      5-min Rain = 0
KWA1 131504Z 04007KT M03/M09 A3059 RMK A01 T10251093  RH  059%=      5-min Rain = 0
KWA1 131505Z 04006KT M03/M10 A3059 RMK A01 T10251095  RH  058%=      5-min Rain = 0
KWA1 131506Z 04006KT M03/M10 A3059 RMK A01 T10251096  RH  058%=      5-min Rain = 0
KWA1 131507Z 05007KT M03/M10 A3059 RMK A01 T10251095  RH  059%=      5-min Rain = 0
KWA1 131508Z 04006KT M02/M10 A3059 RMK A01 T10241096  RH  058%=      5-min Rain = 0
KWA1 131509Z 04006KT M02/M09 A3059 RMK A01 T10231092  RH  059%=      5-min Rain = 0
KWA1 131510Z 03006KT M02/M09 A306 RMK A01 T10221093  RH  058%=      5-min Rain = 0
KWA1 131511Z 03007KT M02/M10 A306 RMK A01 T10221095  RH  057%=      5-min Rain = 0
KWA1 131512Z 03006KT M02/M10 A306 RMK A01 T10221096  RH  057%=      5-min Rain = 0
KWA1 131513Z 05006KT M02/M10 A306 RMK A01 T10211095  RH  057%=      5-min Rain = 0
KWA1 131514Z 05006KT M02/M10 A306 RMK A01 T10211095  RH  057%=      5-min Rain = 0
KWA1 131515Z 04006KT M02/M09 A306 RMK A01 T10201094  RH  057%=      5-min Rain = 0
KWA1 131516Z 04006KT M02/M10 A306 RMK A01 T10201096  RH  056%=      5-min Rain = 0
KWA1 131517Z 04006KT M02/M10 A306 RMK A01 T10201096  RH  056%=      5-min Rain = 0
KWA1 131518Z 04006KT M02/M10 A306 RMK A01 T10191095  RH  056%=      5-min Rain = 0
KWA1 131519Z 04007KT M02/M10 A306 RMK A01 T10191095  RH  056%=      5-min Rain = 0
KWA1 131520Z 04006KT M02/M09 A306 RMK A01 T10181093  RH  057%=      5-min Rain = 0
KWA1 131521Z 03006KT M02/M09 A306 RMK A01 T10171092  RH  056%=      5-min Rain = 0
KWA1 131522Z 04006KT M02/M09 A306 RMK A01 T10151092  RH  056%=      5-min Rain = 0
KWA1 131523Z 04006KT M02/M10 A306 RMK A01 T10151095  RH  055%=      5-min Rain = 0
KWA1 131524Z 04005KT M02/M09 A306 RMK A01 T10151094  RH  055%=      5-min Rain = 0
KWA1 131525Z 04006KT M01/M09 A306 RMK A01 T10141092  RH  055%=      5-min Rain = 0
KWA1 131526Z 04006KT M01/M09 A3061 RMK A01 T10121092  RH  055%=      5-min Rain = 0
KWA1 131527Z 04006KT M01/M09 A3061 RMK A01 T10111094  RH  053%=      5-min Rain = 0
KWA1 131528Z 05007KT M01/M10 A3061 RMK A01 T10111095  RH  053%=      5-min Rain = 0
KWA1 131529Z 05006KT M01/M10 A3061 RMK A01 T10121097  RH  052%=      5-min Rain = 0
KWA1 131530Z 05005KT M01/M10 A3061 RMK A01 T10121095  RH  053%=      5-min Rain = 0
KWA1 131531Z 04006KT M01/M09 A3061 RMK A01 T10111092  RH  054%=      5-min Rain = 0
KWA1 131532Z 04006KT M01/M09 A3061 RMK A01 T10091094  RH  052%=      5-min Rain = 0
KWA1 131533Z 06006KT M01/M10 A3061 RMK A01 T10091096  RH  052%=      5-min Rain = 0
KWA1 131534Z 06007KT M01/M10 A3061 RMK A01 T10081096  RH  051%=      5-min Rain = 0
KWA1 131535Z 06006KT M01/M10 A3061 RMK A01 T10071097  RH  050%=      5-min Rain = 0
KWA1 131536Z 05007KT M01/M10 A3061 RMK A01 T10071098  RH  050%=      5-min Rain = 0
KWA1 131537Z 06007KT M01/M10 A3061 RMK A01 T10071099  RH  049%=      5-min Rain = 0
KWA1 131538Z 07006KT M01/M10 A3061 RMK A01 T10071102  RH  049%=      5-min Rain = 0
KWA1 131539Z 05007KT M01/M10 A3062 RMK A01 T10071100  RH  050%=      5-min Rain = 0
KWA1 131540Z 04006KT M01/M10 A3062 RMK A01 T10071100  RH  049%=      5-min Rain = 0
KWA1 131541Z 05007KT M01/M10 A3062 RMK A01 T10071101  RH  049%=      5-min Rain = 0
KWA1 131542Z 05006KT M01/M10 A3062 RMK A01 T10071103  RH  048%=      5-min Rain = 0
KWA1 131543Z 05006KT M01/M11 A3062 RMK A01 T10071105  RH  048%=      5-min Rain = 0
KWA1 131544Z 06005KT M01/M10 A3062 RMK A01 T10071103  RH  048%=      5-min Rain = 0
KWA1 131545Z 04005KT M01/M10 A3062 RMK A01 T10071103  RH  048%=      5-min Rain = 0
KWA1 131546Z 04007KT M01/M10 A3062 RMK A01 T10071103  RH  048%=      5-min Rain = 0
KWA1 131547Z 04006KT M01/M10 A3062 RMK A01 T10061103  RH  048%=      5-min Rain = 0
KWA1 131548Z 05006KT M01/M10 A3062 RMK A01 T10061103  RH  048%=      5-min Rain = 0
KWA1 131549Z 05008KT M01/M10 A3062 RMK A01 T10061102  RH  048%=      5-min Rain = 0
KWA1 131550Z 06006KT M01/M10 A3062 RMK A01 T10061103  RH  048%=      5-min Rain = 0
KWA1 131551Z 06006KT M01/M10 A3062 RMK A01 T10051099  RH  049%=      5-min Rain = 0
KWA1 131552Z 05008KT M00/M10 A3062 RMK A01 T10021098  RH  049%=      5-min Rain = 0
KWA1 131553Z 05006KT M00/M10 A3062 RMK A01 T10021100  RH  048%=      5-min Rain = 0
KWA1 131554Z 05007KT M00/M10 A3062 RMK A01 T10031103  RH  047%=      5-min Rain = 0
KWA1 131555Z 06006KT M01/M10 A3062 RMK A01 T10051104  RH  047%=      5-min Rain = 0
KWA1 131556Z 05006KT M01/M10 A3062 RMK A01 T10051103  RH  048%=      5-min Rain = 0
KWA1 131557Z 04006KT M01/M10 A3062 RMK A01 T10051103  RH  048%=      5-min Rain = 0
KWA1 131558Z 05008KT M00/M10 A3062 RMK A01 T10041101  RH  048%=      5-min Rain = 0
KWA1 131559Z 05008KT M00/M10 A3062 RMK A01 T10031103  RH  047%=      5-min Rain = 0
KWA1 131600Z 06005KT M00/M11 A3062 RMK A01 T10031105  RH  046%=      5-min Rain = 0
KWA1 131601Z 06006KT M00/M10 A3062 RMK A01 T10041104  RH  047%=      5-min Rain = 0
KWA1 131602Z 05006KT M00/M10 A3062 RMK A01 T10031103  RH  047%=      5-min Rain = 0
KWA1 131603Z 07006KT M00/M10 A3062 RMK A01 T10021100  RH  047%=      5-min Rain = 0
KWA1 131604Z 05006KT M00/M10 A3063 RMK A01 T10011101  RH  047%=      5-min Rain = 0
KWA1 131605Z 05006KT 00/10 A3063 RMK A01 T00000-100  RH  047%=      5-min Rain = 0
KWA1 131606Z 04005KT 00/10 A3063 RMK A01 T00-00-103  RH  046%=      5-min Rain = 0
KWA1 131607Z 04007KT M00/M10 A3063 RMK A01 T10011103  RH  046%=      5-min Rain = 0
KWA1 131608Z 05007KT 00/M10 A3063 RMK A01 T00021096  RH  048%=      5-min Rain = 0
KWA1 131609Z 04007KT 00/M10 A3063 RMK A01 T00041096  RH  047%=      5-min Rain = 0
KWA1 131610Z 03006KT 00/M10 A3063 RMK A01 T00031099  RH  046%=      5-min Rain = 0
KWA1 131611Z 04006KT 00/M10 A3063 RMK A01 T00021099  RH  047%=      5-min Rain = 0
KWA1 131612Z 04005KT 00/M10 A3063 RMK A01 T00031097  RH  047%=      5-min Rain = 0
KWA1 131613Z 05006KT 00/M10 A3063 RMK A01 T00041098  RH  046%=      5-min Rain = 0
KWA1 131614Z 04007KT 00/M10 A3063 RMK A01 T00041100  RH  046%=      5-min Rain = 0
KWA1 131615Z 05008KT 00/M10 A3063 RMK A01 T00041102  RH  045%=      5-min Rain = 0
KWA1 131616Z 05006KT 00/M11 A3063 RMK A01 T00021105  RH  045%=      5-min Rain = 0
KWA1 131617Z 05005KT 00/M10 A3063 RMK A01 T00011103  RH  045%=      5-min Rain = 0
KWA1 131618Z 03006KT 00/M10 A3064 RMK A01 T00011102  RH  046%=      5-min Rain = 0
KWA1 131619Z 03007KT 00/M10 A3064 RMK A01 T00011101  RH  046%=      5-min Rain = 0
KWA1 131620Z 03008KT 00/M10 A3064 RMK A01 T00041096  RH  047%=      5-min Rain = 0
KWA1 131621Z 04007KT 01/M10 A3064 RMK A01 T00051099  RH  046%=      5-min Rain = 0
KWA1 131622Z 03007KT 01/M10 A3064 RMK A01 T00051097  RH  046%=      5-min Rain = 0
KWA1 131623Z 02006KT 00/M10 A3063 RMK A01 T00041103  RH  045%=      5-min Rain = 0
KWA1 131624Z 02006KT 00/M10 A3063 RMK A01 T00021104  RH  045%=      5-min Rain = 0
KWA1 131625Z 04006KT 00/M10 A3063 RMK A01 T00031099  RH  047%=      5-min Rain = 0
KWA1 131626Z 06009KT 01/M10 A3063 RMK A01 T00061098  RH  046%=      5-min Rain = 0
KWA1 131627Z 07006KT 01/M10 A3063 RMK A01 T00061102  RH  044%=      5-min Rain = 0
KWA1 131628Z 07003KT 01/M10 A3063 RMK A01 T00051101  RH  045%=      5-min Rain = 0
KWA1 131629Z 06005KT 01/M10 A3063 RMK A01 T00061100  RH  045%=      5-min Rain = 0
KWA1 131630Z 06007KT 01/M10 A3063 RMK A01 T00081097  RH  045%=      5-min Rain = 0
KWA1 131631Z 05007KT 01/M10 A3063 RMK A01 T00081102  RH  044%=      5-min Rain = 0
KWA1 131632Z 02007KT 01/M10 A3063 RMK A01 T00081100  RH  044%=      5-min Rain = 0
KWA1 131633Z 02006KT 01/M10 A3063 RMK A01 T00081099  RH  045%=      5-min Rain = 0
KWA1 131634Z 03005KT 01/M10 A3063 RMK A01 T00071102  RH  044%=      5-min Rain = 0
KWA1 131635Z 04004KT 01/M10 A3063 RMK A01 T00071102  RH  044%=      5-min Rain = 0
KWA1 131636Z 06008KT 01/M10 A3064 RMK A01 T00091095  RH  046%=      5-min Rain = 0
KWA1 131637Z 06007KT 01/M10 A3064 RMK A01 T00121097  RH  044%=      5-min Rain = 0
KWA1 131638Z 06005KT 01/M10 A3064 RMK A01 T00111101  RH  043%=      5-min Rain = 0
KWA1 131639Z 06007KT 01/M10 A3064 RMK A01 T00111098  RH  044%=      5-min Rain = 0
KWA1 131640Z 05006KT 01/M10 A3064 RMK A01 T00121099  RH  043%=      5-min Rain = 0
KWA1 131641Z 05005KT 01/M10 A3064 RMK A01 T00121098  RH  044%=      5-min Rain = 0
KWA1 131642Z 04005KT 01/M10 A3064 RMK A01 T00141098  RH  043%=      5-min Rain = 0
KWA1 131643Z 05007KT 01/M10 A3063 RMK A01 T00131099  RH  043%=      5-min Rain = 0
KWA1 131644Z 07007KT 01/M10 A3063 RMK A01 T00141103  RH  042%=      5-min Rain = 0
KWA1 131645Z 05006KT 01/M10 A3063 RMK A01 T00141103  RH  042%=      5-min Rain = 0
KWA1 131646Z 03007KT 02/M10 A3063 RMK A01 T00161099  RH  042%=      5-min Rain = 0
KWA1 131647Z 03006KT 02/M10 A3063 RMK A01 T00171100  RH  042%=      5-min Rain = 0
KWA1 131648Z 06006KT 02/M10 A3063 RMK A01 T00161099  RH  042%=      5-min Rain = 0
KWA1 131649Z 06006KT 02/M10 A3063 RMK A01 T00171098  RH  042%=      5-min Rain = 0
KWA1 131650Z 06006KT 02/M10 A3063 RMK A01 T00181097  RH  042%=      5-min Rain = 0
KWA1 131651Z 05007KT 02/M10 A3063 RMK A01 T00181100  RH  041%=      5-min Rain = 0
KWA1 131652Z 03005KT 02/M10 A3063 RMK A01 T00181102  RH  041%=      5-min Rain = 0
KWA1 131653Z 04004KT 02/M10 A3063 RMK A01 T00171101  RH  041%=      5-min Rain = 0
KWA1 131654Z 08005KT 02/M10 A3063 RMK A01 T00171102  RH  041%=      5-min Rain = 0
KWA1 131655Z 05007KT 02/M10 A3063 RMK A01 T00191099  RH  041%=      5-min Rain = 0
KWA1 131656Z 05005KT 02/M10 A3063 RMK A01 T00191100  RH  041%=      5-min Rain = 0
KWA1 131657Z 06003KT 02/M10 A3063 RMK A01 T00181101  RH  041%=      5-min Rain = 0
KWA1 131658Z 05006KT 02/M10 A3063 RMK A01 T00181100  RH  041%=      5-min Rain = 0
KWA1 131659Z 04007KT 02/M10 A3063 RMK A01 T00191099  RH  041%=      5-min Rain = 0
KWA1 131700Z 04008KT 02/M10 A3063 RMK A01 T00191100  RH  041%=      5-min Rain = 0
KWA1 131701Z 04007KT 02/M10 A3063 RMK A01 T00191101  RH  040%=      5-min Rain = 0
KWA1 131702Z 03007KT 02/M10 A3063 RMK A01 T00191102  RH  040%=      5-min Rain = 0
KWA1 131703Z 03006KT 02/M10 A3063 RMK A01 T00191101  RH  041%=      5-min Rain = 0
KWA1 131704Z 03006KT 02/M10 A3063 RMK A01 T00201099  RH  041%=      5-min Rain = 0
KWA1 131705Z 06007KT 02/M10 A3063 RMK A01 T00201100  RH  040%=      5-min Rain = 0
KWA1 131706Z 04006KT 02/M10 A3063 RMK A01 T00211101  RH  040%=      5-min Rain = 0
KWA1 131707Z 02006KT 02/M10 A3063 RMK A01 T00231096  RH  041%=      5-min Rain = 0
KWA1 131708Z 01006KT 02/M10 A3062 RMK A01 T00241097  RH  040%=      5-min Rain = 0
KWA1 131709Z 05007KT 02/M10 A3063 RMK A01 T00231097  RH  041%=      5-min Rain = 0
KWA1 131710Z 06007KT 03/M10 A3063 RMK A01 T00251097  RH  040%=      5-min Rain = 0
KWA1 131711Z 07006KT 03/M10 A3063 RMK A01 T00251100  RH  039%=      5-min Rain = 0
KWA1 131712Z 06006KT 03/M10 A3063 RMK A01 T00251101  RH  039%=      5-min Rain = 0
KWA1 131713Z 05005KT 03/M10 A3063 RMK A01 T00261096  RH  040%=      5-min Rain = 0
KWA1 131714Z 04008KT 03/M10 A3063 RMK A01 T00281095  RH  040%=      5-min Rain = 0
KWA1 131715Z 05007KT 03/M10 A3063 RMK A01 T00281097  RH  039%=      5-min Rain = 0
KWA1 131716Z 05005KT 03/M10 A3063 RMK A01 T00281098  RH  039%=      5-min Rain = 0
KWA1 131717Z 05003KT 03/M10 A3062 RMK A01 T00251103  RH  038%=      5-min Rain = 0
KWA1 131718Z 04004KT 03/M10 A3062 RMK A01 T00251099  RH  040%=      5-min Rain = 0
KWA1 131719Z 05003KT 03/M10 A3062 RMK A01 T00261098  RH  040%=      5-min Rain = 0
KWA1 131720Z 07006KT 03/M10 A3062 RMK A01 T00281098  RH  039%=      5-min Rain = 0
KWA1 131721Z 07007KT 03/M10 A3062 RMK A01 T00281103  RH  037%=      5-min Rain = 0
KWA1 131722Z 08007KT 03/M11 A3062 RMK A01 T00271105  RH  037%=      5-min Rain = 0
KWA1 131723Z 08007KT 03/M11 A3062 RMK A01 T00261105  RH  037%=      5-min Rain = 0
KWA1 131724Z 06006KT 03/M10 A3062 RMK A01 T00291099  RH  038%=      5-min Rain = 0
KWA1 131725Z 06006KT 03/M10 A3062 RMK A01 T00311101  RH  037%=      5-min Rain = 0
KWA1 131726Z 04008KT 03/M10 A3062 RMK A01 T00301103  RH  037%=      5-min Rain = 0
KWA1 131727Z 04006KT 03/M10 A3062 RMK A01 T00301103  RH  037%=      5-min Rain = 0
KWA1 131728Z 04004KT 03/M10 A3062 RMK A01 T00291103  RH  037%=      5-min Rain = 0
KWA1 131729Z 04006KT 03/M10 A3062 RMK A01 T00291102  RH  038%=      5-min Rain = 0
KWA1 131730Z 06006KT 03/M10 A3062 RMK A01 T00281102  RH  038%=      5-min Rain = 0
KWA1 131731Z 06007KT 03/M10 A3061 RMK A01 T00301101  RH  038%=      5-min Rain = 0
KWA1 131732Z 05008KT 03/M10 A3061 RMK A01 T00301104  RH  037%=      5-min Rain = 0
KWA1 131733Z 05007KT 03/M10 A3061 RMK A01 T00291104  RH  037%=      5-min Rain = 0
KWA1 131734Z 05007KT 03/M10 A3061 RMK A01 T00291103  RH  037%=      5-min Rain = 0
KWA1 131735Z 05007KT 03/M10 A3061 RMK A01 T00291103  RH  037%=      5-min Rain = 0
KWA1 131736Z 05006KT 03/M11 A3061 RMK A01 T00291105  RH  037%=      5-min Rain = 0
KWA1 131737Z 05005KT 03/M11 A3061 RMK A01 T00281105  RH  037%=      5-min Rain = 0
KWA1 131738Z 06003KT 03/M11 A3061 RMK A01 T00261106  RH  037%=      5-min Rain = 0
KWA1 131739Z 06004KT 03/M10 A3061 RMK A01 T00271104  RH  037%=      5-min Rain = 0
KWA1 131740Z 06007KT 03/M10 A3061 RMK A01 T00301101  RH  038%=      5-min Rain = 0
KWA1 131741Z 06005KT 03/M10 A3061 RMK A01 T00301104  RH  037%=      5-min Rain = 0
KWA1 131742Z 08007KT 03/M10 A3061 RMK A01 T00311100  RH  037%=      5-min Rain = 0
KWA1 131743Z 09006KT 03/M10 A3061 RMK A01 T00331103  RH  036%=      5-min Rain = 0
KWA1 131744Z 08006KT 03/M11 A306 RMK A01 T00311105  RH  036%=      5-min Rain = 0
KWA1 131745Z 08005KT 03/M10 A306 RMK A01 T00311101  RH  037%=      5-min Rain = 0
KWA1 131746Z 08004KT 03/M10 A306 RMK A01 T00321101  RH  037%=      5-min Rain = 0
KWA1 131747Z 07005KT 03/M10 A306 RMK A01 T00341095  RH  038%=      5-min Rain = 0
KWA1 131748Z 06004KT 04/M10 A306 RMK A01 T00371097  RH  037%=      5-min Rain = 0
KWA1 131749Z 04004KT 04/M10 A306 RMK A01 T00361098  RH  037%=      5-min Rain = 0
KWA1 131750Z 05006KT 04/M10 A306 RMK A01 T00361099  RH  037%=      5-min Rain = 0
KWA1 131751Z 05008KT 04/M10 A306 RMK A01 T00361098  RH  037%=      5-min Rain = 0
KWA1 131752Z 03005KT 04/M10 A306 RMK A01 T00351102  RH  036%=      5-min Rain = 0
KWA1 131753Z 03007KT 03/M10 A306 RMK A01 T00341101  RH  037%=      5-min Rain = 0
KWA1 131754Z 06006KT 04/M10 A306 RMK A01 T00361099  RH  037%=      5-min Rain = 0
KWA1 131755Z 08006KT 04/M10 A306 RMK A01 T00371099  RH  036%=      5-min Rain = 0
KWA1 131756Z 07007KT 04/M10 A306 RMK A01 T00381098  RH  036%=      5-min Rain = 0
KWA1 131757Z 08006KT 04/M10 A306 RMK A01 T00391101  RH  035%=      5-min Rain = 0
KWA1 131758Z 05005KT 04/M10 A306 RMK A01 T00381101  RH  036%=      5-min Rain = 0
KWA1 131759Z 03004KT 04/M10 A306 RMK A01 T00381101  RH  036%=      5-min Rain = 0
KWA1 131800Z 03004KT 04/M10 A306 RMK A01 T00381097  RH  037%=      5-min Rain = 0
KWA1 131801Z 03004KT 04/M10 A306 RMK A01 T00391098  RH  036%=      5-min Rain = 0
KWA1 131802Z 05005KT 04/M10 A306 RMK A01 T00401097  RH  036%=      5-min Rain = 0
KWA1 131803Z 04006KT 04/M10 A306 RMK A01 T00411097  RH  036%=      5-min Rain = 0
KWA1 131804Z 02005KT 04/M10 A306 RMK A01 T00411098  RH  036%=      5-min Rain = 0
KWA1 131805Z 05006G12KT 04/M10 A306 RMK A01 T00411095  RH  036%=      5-min Rain = 0
KWA1 131806Z 06006KT 05/M09 A306 RMK A01 T00451094  RH  036%=      5-min Rain = 0
KWA1 131807Z 03006KT 04/M10 A306 RMK A01 T00441098  RH  035%=      5-min Rain = 0
KWA1 131808Z 03006KT 04/M10 A306 RMK A01 T00441099  RH  034%=      5-min Rain = 0
KWA1 131809Z 06005KT 04/M10 A306 RMK A01 T00431100  RH  034%=      5-min Rain = 0
KWA1 131810Z 07004KT 04/M10 A306 RMK A01 T00421103  RH  034%=      5-min Rain = 0
KWA1 131811Z 07006KT 04/M10 A306 RMK A01 T00421102  RH  034%=      5-min Rain = 0
KWA1 131812Z 08005KT 04/M10 A306 RMK A01 T00421102  RH  034%=      5-min Rain = 0
KWA1 131813Z 07005KT 04/M10 A306 RMK A01 T00421100  RH  035%=      5-min Rain = 0
KWA1 131814Z 08005KT 04/M10 A306 RMK A01 T00421099  RH  035%=      5-min Rain = 0
KWA1 131815Z 05005KT 04/M09 A306 RMK A01 T00441094  RH  036%=      5-min Rain = 0
KWA1 131816Z 06008KT 05/M10 A306 RMK A01 T00471095  RH  035%=      5-min Rain = 0
KWA1 131817Z 06006KT 05/M10 A306 RMK A01 T00461101  RH  034%=      5-min Rain = 0
KWA1 131818Z 06006KT 04/M10 A3059 RMK A01 T00441102  RH  034%=      5-min Rain = 0
KWA1 131819Z 05006KT 04/M10 A3059 RMK A01 T00431103  RH  034%=      5-min Rain = 0
KWA1 131820Z 07007KT 04/M10 A3059 RMK A01 T00411103  RH  034%=      5-min Rain = 0
KWA1 131821Z 07005KT 04/M10 A3059 RMK A01 T00411100  RH  035%=      5-min Rain = 0
KWA1 131822Z 05004KT 04/M10 A3059 RMK A01 T00421099  RH  035%=      5-min Rain = 0
KWA1 131823Z 05004KT 04/M10 A3059 RMK A01 T00441097  RH  035%=      5-min Rain = 0
KWA1 131824Z 03005G10KT 05/M10 A3059 RMK A01 T00451100  RH  034%=      5-min Rain = 0
KWA1 131825Z 04007KT 05/M10 A3059 RMK A01 T00481096  RH  035%=      5-min Rain = 0
KWA1 131826Z 03007KT 05/M10 A3059 RMK A01 T00481101  RH  033%=      5-min Rain = 0
KWA1 131827Z 03007KT 05/M10 A3059 RMK A01 T00471104  RH  033%=      5-min Rain = 0
KWA1 131828Z 03007KT 05/M10 A3059 RMK A01 T00461103  RH  033%=      5-min Rain = 0
KWA1 131829Z 03007KT 05/M10 A3059 RMK A01 T00461103  RH  033%=      5-min Rain = 0
KWA1 131830Z 07007KT 05/M10 A3059 RMK A01 T00461102  RH  033%=      5-min Rain = 0
KWA1 131831Z 08006KT 05/M10 A3059 RMK A01 T00461104  RH  033%=      5-min Rain = 0
KWA1 131832Z 03005KT 05/M10 A3058 RMK A01 T00461104  RH  033%=      5-min Rain = 0
KWA1 131833Z 05007KT 05/M10 A3058 RMK A01 T00461101  RH  033%=      5-min Rain = 0
KWA1 131834Z 04006KT 05/M10 A3058 RMK A01 T00491097  RH  034%=      5-min Rain = 0
KWA1 131835Z 02006KT 05/M10 A3058 RMK A01 T00481101  RH  033%=      5-min Rain = 0
KWA1 131836Z 02005KT 05/M10 A3058 RMK A01 T00471099  RH  034%=      5-min Rain = 0
KWA1 131837Z 06003KT 05/M10 A3058 RMK A01 T00461100  RH  034%=      5-min Rain = 0
KWA1 131838Z 07003KT 05/M10 A3058 RMK A01 T00461100  RH  034%=      5-min Rain = 0
KWA1 131839Z 05004KT 05/M10 A3058 RMK A01 T00461099  RH  034%=      5-min Rain = 0
KWA1 131840Z 02006KT 05/M10 A3058 RMK A01 T00491095  RH  034%=      5-min Rain = 0
KWA1 131841Z 03005KT 05/M10 A3058 RMK A01 T00501100  RH  033%=      5-min Rain = 0
KWA1 131842Z 03006KT 05/M10 A3058 RMK A01 T00491096  RH  034%=      5-min Rain = 0
KWA1 131843Z 05008KT 05/M10 A3058 RMK A01 T00531095  RH  034%=      5-min Rain = 0
KWA1 131844Z 05006KT 05/M10 A3058 RMK A01 T00521099  RH  033%=      5-min Rain = 0
KWA1 131845Z 04006KT 05/M10 A3058 RMK A01 T00501100  RH  033%=      5-min Rain = 0
KWA1 131846Z 04004KT 05/M10 A3058 RMK A01 T00501100  RH  033%=      5-min Rain = 0
KWA1 131847Z 06003KT 05/M10 A3058 RMK A01 T00501102  RH  033%=      5-min Rain = 0
KWA1 131848Z 03002KT 05/M10 A3057 RMK A01 T00491101  RH  033%=      5-min Rain = 0
KWA1 131849Z 02003KT 05/M10 A3057 RMK A01 T00491099  RH  033%=      5-min Rain = 0
KWA1 131850Z 04005KT 05/M10 A3057 RMK A01 T00511097  RH  033%=      5-min Rain = 0
KWA1 131851Z 03005KT 05/M10 A3057 RMK A01 T00511102  RH  032%=      5-min Rain = 0
KWA1 131852Z 03006KT 05/M11 A3057 RMK A01 T00501105  RH  032%=      5-min Rain = 0
KWA1 131853Z 03003KT 05/M11 A3057 RMK A01 T00511105  RH  031%=      5-min Rain = 0
KWA1 131854Z 05005KT 05/M10 A3057 RMK A01 T00511103  RH  032%=      5-min Rain = 0
KWA1 131855Z 05006KT 05/M10 A3057 RMK A01 T00541102  RH  032%=      5-min Rain = 0
KWA1 131856Z 06003KT 05/M10 A3057 RMK A01 T00531104  RH  031%=      5-min Rain = 0
KWA1 131857Z 07001KT 05/M10 A3057 RMK A01 T00531102  RH  032%=      5-min Rain = 0
KWA1 131858Z 06003G8KT 06/M10 A3057 RMK A01 T00561097  RH  032%=      5-min Rain = 0
KWA1 131859Z 04006KT 06/M09 A3057 RMK A01 T00591093  RH  032%=      5-min Rain = 0
KWA1 131900Z 04007KT 06/M10 A3057 RMK A01 T00621097  RH  031%=      5-min Rain = 0
KWA1 131901Z 05006KT 06/M10 A3057 RMK A01 T00581104  RH  030%=      5-min Rain = 0
KWA1 131902Z 07005KT 06/M10 A3057 RMK A01 T00551103  RH  031%=      5-min Rain = 0
KWA1 131903Z 07005KT 06/M10 A3057 RMK A01 T00561101  RH  031%=      5-min Rain = 0
KWA1 131904Z 06004KT 05/M10 A3057 RMK A01 T00541103  RH  031%=      5-min Rain = 0
KWA1 131905Z 06004KT 05/M10 A3056 RMK A01 T00541103  RH  031%=      5-min Rain = 0
KWA1 131906Z 05004KT 05/M10 A3056 RMK A01 T00531102  RH  032%=      5-min Rain = 0
KWA1 131907Z 07005KT 05/M10 A3056 RMK A01 T00541102  RH  031%=      5-min Rain = 0
KWA1 131908Z 09003KT 06/M10 A3056 RMK A01 T00551104  RH  031%=      5-min Rain = 0
KWA1 131909Z 07004KT 06/M11 A3056 RMK A01 T00551106  RH  030%=      5-min Rain = 0
KWA1 131910Z 06005KT 06/M10 A3056 RMK A01 T00561104  RH  030%=      5-min Rain = 0
KWA1 131911Z 06004KT 06/M11 A3056 RMK A01 T00591105  RH  030%=      5-min Rain = 0
KWA1 131912Z 07003KT 06/M11 A3056 RMK A01 T00591109  RH  029%=      5-min Rain = 0
KWA1 131913Z 06004KT 06/M11 A3056 RMK A01 T00571109  RH  029%=      5-min Rain = 0
KWA1 131914Z 05006KT 06/M10 A3056 RMK A01 T00571104  RH  030%=      5-min Rain = 0
KWA1 131915Z 03006KT 06/M10 A3056 RMK A01 T00601103  RH  030%=      5-min Rain = 0
KWA1 131916Z 04006KT 06/M11 A3056 RMK A01 T00591105  RH  030%=      5-min Rain = 0
KWA1 131917Z 04006KT 06/M10 A3056 RMK A01 T00591103  RH  030%=      5-min Rain = 0
KWA1 131918Z 03005KT 06/M10 A3056 RMK A01 T00581103  RH  030%=      5-min Rain = 0
KWA1 131919Z 04004KT 06/M10 A3056 RMK A01 T00581102  RH  031%=      5-min Rain = 0
KWA1 131920Z 08004KT 06/M10 A3056 RMK A01 T00601099  RH  031%=      5-min Rain = 0
KWA1 131921Z 08003KT 06/M10 A3056 RMK A01 T00591104  RH  030%=      5-min Rain = 0
KWA1 131922Z 09001KT 06/M11 A3055 RMK A01 T00581105  RH  030%=      5-min Rain = 0
KWA1 131923Z 13003KT 06/M10 A3055 RMK A01 T00591100  RH  031%=      5-min Rain = 0
KWA1 131924Z 13003KT 06/M10 A3055 RMK A01 T00621099  RH  030%=      5-min Rain = 0
KWA1 131925Z 09002KT 06/M10 A3055 RMK A01 T00621101  RH  030%=      5-min Rain = 0
KWA1 131926Z 05005KT 06/M10 A3055 RMK A01 T00631100  RH  030%=      5-min Rain = 0
KWA1 131927Z 05007KT 06/M11 A3055 RMK A01 T00631107  RH  028%=      5-min Rain = 0
KWA1 131928Z 04006KT 06/M11 A3055 RMK A01 T00621110  RH  028%=      5-min Rain = 0
KWA1 131929Z 04006KT 06/M11 A3055 RMK A01 T00611112  RH  028%=      5-min Rain = 0
KWA1 131930Z 05006KT 06/M11 A3054 RMK A01 T00621110  RH  028%=      5-min Rain = 0
KWA1 131931Z 05005KT 06/M11 A3054 RMK A01 T00641108  RH  028%=      5-min Rain = 0
KWA1 131932Z 05004KT 06/M11 A3054 RMK A01 T00631111  RH  027%=      5-min Rain = 0
KWA1 131933Z 08004KT 06/M11 A3054 RMK A01 T00621109  RH  028%=      5-min Rain = 0
KWA1 131934Z 08004KT 06/M11 A3054 RMK A01 T00621110  RH  028%=      5-min Rain = 0
KWA1 131935Z 06002KT 06/M11 A3054 RMK A01 T00621111  RH  028%=      5-min Rain = 0
KWA1 131936Z 06004KT 06/M11 A3054 RMK A01 T00631107  RH  028%=      5-min Rain = 0
KWA1 131937Z 04004KT 07/M11 A3054 RMK A01 T00651107  RH  028%=      5-min Rain = 0
KWA1 131938Z 06002KT 07/M11 A3054 RMK A01 T00651109  RH  028%=      5-min Rain = 0
KWA1 131939Z 09002KT 06/M11 A3054 RMK A01 T00641109  RH  028%=      5-min Rain = 0
KWA1 131940Z 08001KT 06/M11 A3054 RMK A01 T00641110  RH  028%=      5-min Rain = 0
KWA1 131941Z 09003KT 07/M11 A3054 RMK A01 T00651110  RH  027%=      5-min Rain = 0
KWA1 131942Z 08004KT 07/M11 A3054 RMK A01 T00651114  RH  027%=      5-min Rain = 0
KWA1 131943Z 06004KT 07/M11 A3054 RMK A01 T00651114  RH  026%=      5-min Rain = 0
KWA1 131944Z 07004KT 07/M12 A3054 RMK A01 T00651115  RH  026%=      5-min Rain = 0
KWA1 131945Z 06003KT 06/M12 A3054 RMK A01 T00641117  RH  026%=      5-min Rain = 0
KWA1 131946Z 06003KT 06/M12 A3054 RMK A01 T00631119  RH  026%=      5-min Rain = 0
KWA1 131947Z 07002KT 07/M12 A3054 RMK A01 T00651116  RH  026%=      5-min Rain = 0
KWA1 131948Z 05002KT 07/M11 A3054 RMK A01 T00681109  RH  027%=      5-min Rain = 0
KWA1 131949Z 30001KT 07/M11 A3054 RMK A01 T00701109  RH  027%=      5-min Rain = 0
KWA1 131950Z 02002KT 07/M11 A3054 RMK A01 T00691106  RH  027%=      5-min Rain = 0
KWA1 131951Z 08003KT 07/M11 A3053 RMK A01 T00701106  RH  027%=      5-min Rain = 0
KWA1 131952Z 12004KT 07/M11 A3053 RMK A01 T00701107  RH  027%=      5-min Rain = 0
KWA1 131953Z 09005KT 07/M11 A3053 RMK A01 T00691107  RH  027%=      5-min Rain = 0
KWA1 131954Z 10005KT 07/M11 A3053 RMK A01 T00691108  RH  027%=      5-min Rain = 0
KWA1 131955Z 05006KT 07/M10 A3054 RMK A01 T00711102  RH  028%=      5-min Rain = 0
KWA1 131956Z 06007KT 07/M11 A3054 RMK A01 T00711106  RH  027%=      5-min Rain = 0
KWA1 131957Z 05003KT 07/M11 A3054 RMK A01 T00701108  RH  027%=      5-min Rain = 0
KWA1 131958Z 03003KT 07/M11 A3053 RMK A01 T00691106  RH  027%=      5-min Rain = 0
KWA1 131959Z 06005KT 07/M11 A3053 RMK A01 T00701108  RH  027%=      5-min Rain = 0
KWA1 132000Z 07006KT 07/M11 A3053 RMK A01 T00721110  RH  026%=      5-min Rain = 0
KWA1 132001Z 06004KT 07/M11 A3053 RMK A01 T00721109  RH  026%=      5-min Rain = 0
KWA1 132002Z 05005KT 07/M11 A3053 RMK A01 T00701108  RH  027%=      5-min Rain = 0
KWA1 132003Z 05003KT 07/M11 A3053 RMK A01 T00691108  RH  027%=      5-min Rain = 0
KWA1 132004Z 03001KT 07/M11 A3053 RMK A01 T00691112  RH  026%=      5-min Rain = 0
KWA1 132005Z 33001KT 07/M11 A3053 RMK A01 T00691113  RH  026%=      5-min Rain = 0
KWA1 132006Z 28001KT 07/M11 A3053 RMK A01 T00711106  RH  027%=      5-min Rain = 0
KWA1 132007Z 26001KT 07/M10 A3052 RMK A01 T00731104  RH  027%=      5-min Rain = 0
KWA1 132008Z 07000KT 07/M11 A3052 RMK A01 T00731106  RH  027%=      5-min Rain = 0
KWA1 132009Z 09003KT 07/M11 A3052 RMK A01 T00741105  RH  027%=      5-min Rain = 0
KWA1 132010Z 11005KT 07/M10 A3052 RMK A01 T00741102  RH  027%=      5-min Rain = 0
KWA1 132011Z 11002KT 08/M11 A3052 RMK A01 T00761105  RH  027%=      5-min Rain = 0
KWA1 132012Z 11003KT 07/M11 A3052 RMK A01 T00741108  RH  026%=      5-min Rain = 0
KWA1 132013Z 09004KT 08/M11 A3052 RMK A01 T00751106  RH  026%=      5-min Rain = 0
KWA1 132014Z 08004KT 08/M10 A3052 RMK A01 T00771102  RH  027%=      5-min Rain = 0
KWA1 132015Z 05005KT 08/M11 A3052 RMK A01 T00771108  RH  026%=      5-min Rain = 0
KWA1 132016Z 04003KT 08/M11 A3052 RMK A01 T00751110  RH  026%=      5-min Rain = 0
KWA1 132017Z 04003KT 08/M11 A3052 RMK A01 T00751110  RH  026%=      5-min Rain = 0
KWA1 132018Z 06005KT 08/M11 A3052 RMK A01 T00751109  RH  026%=      5-min Rain = 0
KWA1 132019Z 07007KT 08/M11 A3052 RMK A01 T00771108  RH  026%=      5-min Rain = 0
KWA1 132020Z 07004KT 07/M11 A3052 RMK A01 T00741114  RH  025%=      5-min Rain = 0
KWA1 132021Z 06003KT 07/M11 A3052 RMK A01 T00731109  RH  026%=      5-min Rain = 0
KWA1 132022Z 06003KT 07/M11 A3052 RMK A01 T00741112  RH  025%=      5-min Rain = 0
KWA1 132023Z 05003KT 07/M11 A3052 RMK A01 T00741110  RH  026%=      5-min Rain = 0
KWA1 132024Z 06002KT 07/M11 A3052 RMK A01 T00741110  RH  026%=      5-min Rain = 0
KWA1 132025Z 36001KT 08/M11 A3052 RMK A01 T00751111  RH  025%=      5-min Rain = 0
KWA1 132026Z 30002KT 08/M11 A3051 RMK A01 T00761114  RH  025%=      5-min Rain = 0
KWA1 132027Z 11000KT 08/M11 A3051 RMK A01 T00761111  RH  025%=      5-min Rain = 0
KWA1 132028Z 04001KT 08/M11 A3051 RMK A01 T00761112  RH  025%=      5-min Rain = 0
KWA1 132029Z 05003KT 08/M11 A3051 RMK A01 T00761113  RH  025%=      5-min Rain = 0
KWA1 132030Z 06003KT 08/M11 A3051 RMK A01 T00771112  RH  025%=      5-min Rain = 0
KWA1 132031Z 05004KT 08/M11 A3051 RMK A01 T00791111  RH  025%=      5-min Rain = 0
KWA1 132032Z 05005KT 08/M11 A3051 RMK A01 T00791112  RH  025%=      5-min Rain = 0
KWA1 132033Z 04003KT 08/M11 A3051 RMK A01 T00791113  RH  024%=      5-min Rain = 0
KWA1 132034Z 03003KT 08/M11 A3051 RMK A01 T00771113  RH  024%=      5-min Rain = 0
KWA1 132035Z 05003KT 08/M11 A3051 RMK A01 T00761114  RH  025%=      5-min Rain = 0
KWA1 132036Z 06001KT 08/M12 A3051 RMK A01 T00761116  RH  024%=      5-min Rain = 0
KWA1 132037Z 10002KT 08/M12 A3051 RMK A01 T00771115  RH  024%=      5-min Rain = 0
KWA1 132038Z 11002KT 08/M11 A3051 RMK A01 T00771114  RH  024%=      5-min Rain = 0
KWA1 132039Z 10003KT 08/M11 A3051 RMK A01 T00761113  RH  025%=      5-min Rain = 0
KWA1 132040Z 13002KT 08/M11 A3051 RMK A01 T00771111  RH  025%=      5-min Rain = 0
KWA1 132041Z 11002KT 08/M11 A3051 RMK A01 T00781111  RH  025%=      5-min Rain = 0
KWA1 132042Z 07002KT 08/M11 A3051 RMK A01 T00791109  RH  025%=      5-min Rain = 0
KWA1 132043Z 02003KT 08/M11 A3051 RMK A01 T00811108  RH  025%=      5-min Rain = 0
KWA1 132044Z 03003KT 08/M11 A3051 RMK A01 T00811114  RH  024%=      5-min Rain = 0
KWA1 132045Z 05004KT 08/M11 A3051 RMK A01 T00801113  RH  024%=      5-min Rain = 0
KWA1 132046Z 04002KT 08/M11 A3051 RMK A01 T00811110  RH  025%=      5-min Rain = 0
KWA1 132047Z 06003KT 08/M11 A305 RMK A01 T00811112  RH  024%=      5-min Rain = 0
KWA1 132048Z 07005KT 08/M11 A305 RMK A01 T00811110  RH  025%=      5-min Rain = 0
KWA1 132049Z 06004KT 08/M11 A305 RMK A01 T00801110  RH  025%=      5-min Rain = 0
KWA1 132050Z 06003KT 08/M11 A305 RMK A01 T00811108  RH  025%=      5-min Rain = 0
KWA1 132051Z 07005KT 08/M11 A305 RMK A01 T00821107  RH  025%=      5-min Rain = 0
KWA1 132052Z 09004KT 08/M10 A305 RMK A01 T00831104  RH  025%=      5-min Rain = 0
KWA1 132053Z 11002KT 08/M11 A305 RMK A01 T00841105  RH  025%=      5-min Rain = 0
KWA1 132054Z 11003KT 08/M11 A305 RMK A01 T00841106  RH  025%=      5-min Rain = 0
KWA1 132055Z 09005KT 08/M11 A305 RMK A01 T00831107  RH  025%=      5-min Rain = 0
KWA1 132056Z 09003KT 08/M11 A305 RMK A01 T00811110  RH  025%=      5-min Rain = 0
KWA1 132057Z 09003KT 08/M11 A305 RMK A01 T00811108  RH  025%=      5-min Rain = 0
KWA1 132058Z 10002KT 08/M11 A305 RMK A01 T00801109  RH  025%=      5-min Rain = 0
KWA1 132059Z 14001KT 08/M11 A305 RMK A01 T00791112  RH  024%=      5-min Rain = 0
KWA1 132100Z 13002KT 08/M11 A305 RMK A01 T00791110  RH  025%=      5-min Rain = 0
KWA1 132101Z 14001KT 08/M11 A305 RMK A01 T00811111  RH  024%=      5-min Rain = 0
KWA1 132102Z 17001KT 08/M11 A305 RMK A01 T00811113  RH  024%=      5-min Rain = 0
KWA1 132103Z 20001KT 08/M11 A305 RMK A01 T00831111  RH  024%=      5-min Rain = 0
KWA1 132104Z 21000KT 08/M11 A305 RMK A01 T00841111  RH  024%=      5-min Rain = 0
KWA1 132105Z 09003KT 09/M10 A305 RMK A01 T00861103  RH  025%=      5-min Rain = 0
KWA1 132106Z 10005KT 09/M11 A305 RMK A01 T00871106  RH  024%=      5-min Rain = 0
KWA1 132107Z 09003KT 09/M11 A305 RMK A01 T00861111  RH  024%=      5-min Rain = 0
KWA1 132108Z 09002KT 08/M11 A305 RMK A01 T00831113  RH  024%=      5-min Rain = 0
KWA1 132109Z 13001KT 08/M11 A3049 RMK A01 T00831111  RH  024%=      5-min Rain = 0
KWA1 132110Z 13001KT 09/M11 A3049 RMK A01 T00851106  RH  025%=      5-min Rain = 0
KWA1 132111Z 19001KT 09/M11 A3049 RMK A01 T00881107  RH  024%=      5-min Rain = 0
KWA1 132112Z 18001KT 09/M10 A3049 RMK A01 T00921100  RH  025%=      5-min Rain = 0
KWA1 132113Z 17001KT 09/M10 A3049 RMK A01 T00941102  RH  024%=      5-min Rain = 0
KWA1 132114Z 10002KT 10/M10 A3049 RMK A01 T00951102  RH  024%=      5-min Rain = 0
KWA1 132115Z 08003KT 09/M11 A3049 RMK A01 T00941106  RH  023%=      5-min Rain = 0
KWA1 132116Z 13003KT 09/M11 A3049 RMK A01 T00931106  RH  023%=      5-min Rain = 0
KWA1 132117Z 16003KT 09/M10 A3049 RMK A01 T00921103  RH  024%=      5-min Rain = 0
KWA1 132118Z 16003KT 09/M11 A3049 RMK A01 T00931106  RH  023%=      5-min Rain = 0
KWA1 132119Z 15003KT 09/M11 A3048 RMK A01 T00901110  RH  023%=      5-min Rain = 0
KWA1 132120Z 13003KT 09/M11 A3049 RMK A01 T00891109  RH  023%=      5-min Rain = 0
KWA1 132121Z 15002KT 09/M11 A3049 RMK A01 T00881108  RH  024%=      5-min Rain = 0
KWA1 132122Z 15003KT 09/M10 A3049 RMK A01 T00891104  RH  024%=      5-min Rain = 0
KWA1 132123Z 15002KT 09/M11 A3048 RMK A01 T00891108  RH  024%=      5-min Rain = 0
KWA1 132124Z 07001KT 09/M11 A3048 RMK A01 T00891108  RH  024%=      5-min Rain = 0
KWA1 132125Z 11002KT 09/M11 A3048 RMK A01 T00901106  RH  024%=      5-min Rain = 0
KWA1 132126Z 16004KT 09/M10 A3048 RMK A01 T00921102  RH  024%=      5-min Rain = 0
KWA1 132127Z 16003KT 09/M11 A3047 RMK A01 T00921107  RH  023%=      5-min Rain = 0
KWA1 132128Z 15002KT 09/M11 A3047 RMK A01 T00881108  RH  024%=      5-min Rain = 0
KWA1 132129Z 16001KT 09/M11 A3047 RMK A01 T00891106  RH  024%=      5-min Rain = 0
KWA1 132130Z 03000KT 09/M11 A3047 RMK A01 T00901105  RH  024%=      5-min Rain = 0
KWA1 132131Z 18002KT 09/M10 A3047 RMK A01 T00921103  RH  024%=      5-min Rain = 0
KWA1 132132Z 20002KT 09/M10 A3047 RMK A01 T00941104  RH  024%=      5-min Rain = 0
KWA1 132133Z 15004KT 09/M10 A3047 RMK A01 T00941104  RH  023%=      5-min Rain = 0
KWA1 132134Z 13005KT 09/M11 A3047 RMK A01 T00931106  RH  023%=      5-min Rain = 0
KWA1 132135Z 14003KT 09/M11 A3048 RMK A01 T00901107  RH  023%=      5-min Rain = 0
KWA1 132136Z 13004KT 09/M11 A3048 RMK A01 T00891106  RH  024%=      5-min Rain = 0
KWA1 132137Z 13003KT 09/M10 A3048 RMK A01 T00891104  RH  024%=      5-min Rain = 0
KWA1 132138Z 13003KT 09/M10 A3047 RMK A01 T00891103  RH  025%=      5-min Rain = 0
KWA1 132139Z 11003KT 09/M10 A3047 RMK A01 T00901103  RH  024%=      5-min Rain = 0
KWA1 132140Z 11002KT 09/M11 A3047 RMK A01 T00891105  RH  024%=      5-min Rain = 0
KWA1 132141Z 13002KT 09/M11 A3047 RMK A01 T00891105  RH  024%=      5-min Rain = 0
KWA1 132142Z 17001KT 09/M10 A3047 RMK A01 T00901103  RH  025%=      5-min Rain = 0
KWA1 132143Z 25001KT 09/M10 A3047 RMK A01 T00931101  RH  024%=      5-min Rain = 0
KWA1 132144Z 24001KT 09/M10 A3047 RMK A01 T00941102  RH  024%=      5-min Rain = 0
KWA1 132145Z 23001KT 10/M10 A3047 RMK A01 T00951100  RH  024%=      5-min Rain = 0
KWA1 132146Z 20001KT 10/M10 A3047 RMK A01 T00961103  RH  024%=      5-min Rain = 0
KWA1 132147Z 21002KT 10/M11 A3047 RMK A01 T00951105  RH  023%=      5-min Rain = 0
KWA1 132148Z 18002KT 09/M10 A3047 RMK A01 T00941103  RH  024%=      5-min Rain = 0
KWA1 132149Z 10004KT 10/M10 A3047 RMK A01 T00961100  RH  024%=      5-min Rain = 0
KWA1 132150Z 10005KT 10/M10 A3047 RMK A01 T00951101  RH  024%=      5-min Rain = 0
KWA1 132151Z 11004KT 09/M10 A3047 RMK A01 T00931103  RH  024%=      5-min Rain = 0
KWA1 132152Z 11004KT 09/M10 A3047 RMK A01 T00921102  RH  024%=      5-min Rain = 0
KWA1 132153Z 12004KT 09/M10 A3047 RMK A01 T00911101  RH  025%=      5-min Rain = 0
KWA1 132154Z 11002KT 09/M10 A3047 RMK A01 T00911102  RH  024%=      5-min Rain = 0
KWA1 132155Z 11002KT 09/M10 A3047 RMK A01 T00901104  RH  024%=      5-min Rain = 0
KWA1 132156Z 09006KT 09/M10 A3047 RMK A01 T00901102  RH  024%=      5-min Rain = 0
KWA1 132157Z 11006KT 09/M10 A3047 RMK A01 T00921101  RH  025%=      5-min Rain = 0
KWA1 132158Z 12004KT 09/M10 A3047 RMK A01 T00911104  RH  024%=      5-min Rain = 0
KWA1 132159Z 10002KT 09/M10 A3047 RMK A01 T00901103  RH  025%=      5-min Rain = 0
KWA1 132200Z 11000KT 09/M10 A3047 RMK A01 T00901102  RH  025%=      5-min Rain = 0
KWA1 132201Z 09000KT 09/M10 A3047 RMK A01 T00921099  RH  025%=      5-min Rain = 0
KWA1 132202Z 07003KT 09/M10 A3047 RMK A01 T00941100  RH  024%=      5-min Rain = 0
KWA1 132203Z 08002KT 09/M10 A3047 RMK A01 T00941103  RH  024%=      5-min Rain = 0
KWA1 132204Z 07000KT 09/M10 A3047 RMK A01 T00931103  RH  024%=      5-min Rain = 0
KWA1 132205Z 31000KT 09/M10 A3047 RMK A01 T00931103  RH  024%=      5-min Rain = 0
KWA1 132206Z 07002KT 10/M10 A3047 RMK A01 T00951101  RH  024%=      5-min Rain = 0
KWA1 132207Z 07006KT 10/M10 A3047 RMK A01 T00961100  RH  024%=      5-min Rain = 0
KWA1 132208Z 09006KT 10/M10 A3047 RMK A01 T00961102  RH  024%=      5-min Rain = 0
KWA1 132209Z 08005KT 09/M11 A3047 RMK A01 T00931106  RH  023%=      5-min Rain = 0
KWA1 132210Z 10005KT 09/M10 A3047 RMK A01 T00911104  RH  024%=      5-min Rain = 0
KWA1 132211Z 09005KT 09/M10 A3047 RMK A01 T00911104  RH  024%=      5-min Rain = 0
KWA1 132212Z 08003KT 09/M11 A3047 RMK A01 T00901106  RH  024%=      5-min Rain = 0
KWA1 132213Z 09005KT 09/M10 A3047 RMK A01 T00911103  RH  024%=      5-min Rain = 0
KWA1 132214Z 09002KT 09/M10 A3047 RMK A01 T00921104  RH  024%=      5-min Rain = 0
KWA1 132215Z 13002KT 09/M11 A3047 RMK A01 T00921105  RH  024%=      5-min Rain = 0
KWA1 132216Z 06002KT 09/M10 A3047 RMK A01 T00921102  RH  024%=      5-min Rain = 0
KWA1 132217Z 06002KT 09/M10 A3047 RMK A01 T00931104  RH  024%=      5-min Rain = 0
KWA1 132218Z 05002KT 09/M10 A3047 RMK A01 T00931103  RH  024%=      5-min Rain = 0
KWA1 132219Z 04002KT 09/M10 A3047 RMK A01 T00941100  RH  024%=      5-min Rain = 0
KWA1 132220Z 09004KT 10/M10 A3047 RMK A01 T00951101  RH  024%=      5-min Rain = 0
KWA1 132221Z 12004KT 10/M10 A3047 RMK A01 T00951102  RH  024%=      5-min Rain = 0
KWA1 132222Z 09004KT 09/M11 A3047 RMK A01 T00941105  RH  023%=      5-min Rain = 0
KWA1 132223Z 08004KT 09/M10 A3047 RMK A01 T00941101  RH  024%=      5-min Rain = 0
KWA1 132224Z 08005KT 10/M10 A3047 RMK A01 T00961101  RH  024%=      5-min Rain = 0
KWA1 132225Z 08004KT 10/M10 A3047 RMK A01 T00951104  RH  023%=      5-min Rain = 0
KWA1 132226Z 08006KT 09/M11 A3047 RMK A01 T00941105  RH  023%=      5-min Rain = 0
KWA1 132227Z 09005KT 09/M10 A3047 RMK A01 T00941104  RH  024%=      5-min Rain = 0
KWA1 132228Z 08004KT 09/M11 A3047 RMK A01 T00931106  RH  023%=      5-min Rain = 0
KWA1 132229Z 10002KT 09/M11 A3047 RMK A01 T00921106  RH  024%=      5-min Rain = 0
KWA1 132230Z 11002KT 09/M10 A3047 RMK A01 T00921104  RH  024%=      5-min Rain = 0
KWA1 132231Z 09002KT 09/M11 A3047 RMK A01 T00931105  RH  024%=      5-min Rain = 0
KWA1 132232Z 09003KT 09/M10 A3047 RMK A01 T00941102  RH  024%=      5-min Rain = 0
KWA1 132233Z 10003KT 10/M10 A3047 RMK A01 T00951103  RH  024%=      5-min Rain = 0
KWA1 132234Z 07003KT 10/M10 A3047 RMK A01 T00951104  RH  023%=      5-min Rain = 0
KWA1 132235Z 07004KT 10/M10 A3047 RMK A01 T00951104  RH  023%=      5-min Rain = 0
KWA1 132236Z 08005KT 10/M11 A3047 RMK A01 T00951105  RH  023%=      5-min Rain = 0
KWA1 132237Z 06004KT 09/M11 A3047 RMK A01 T00931106  RH  023%=      5-min Rain = 0
KWA1 132238Z 08003KT 09/M11 A3047 RMK A01 T00931106  RH  023%=      5-min Rain = 0
KWA1 132239Z 07003KT 09/M11 A3047 RMK A01 T00931106  RH  023%=      5-min Rain = 0
KWA1 132240Z 05003KT 09/M10 A3047 RMK A01 T00941104  RH  024%=      5-min Rain = 0
KWA1 132241Z 05002KT 10/M10 A3047 RMK A01 T00951103  RH  024%=      5-min Rain = 0
KWA1 132242Z 04002KT 10/M11 A3047 RMK A01 T00951105  RH  023%=      5-min Rain = 0
KWA1 132243Z 04003KT 10/M11 A3047 RMK A01 T00951105  RH  023%=      5-min Rain = 0
KWA1 132244Z 04003KT 10/M11 A3047 RMK A01 T00951105  RH  023%=      5-min Rain = 0
KWA1 132245Z 08004KT 10/M10 A3047 RMK A01 T00951104  RH  023%=      5-min Rain = 0
KWA1 132246Z 10005KT 10/M10 A3047 RMK A01 T00951104  RH  023%=      5-min Rain = 0
KWA1 132247Z 09004KT 09/M11 A3047 RMK A01 T00941107  RH  023%=      5-min Rain = 0
KWA1 132248Z 08004KT 09/M11 A3047 RMK A01 T00921107  RH  023%=      5-min Rain = 0
KWA1 132249Z 09004KT 09/M11 A3047 RMK A01 T00931105  RH  024%=      5-min Rain = 0
KWA1 132250Z 10004KT 09/M10 A3047 RMK A01 T00941104  RH  024%=      5-min Rain = 0
KWA1 132251Z 10003KT 09/M11 A3046 RMK A01 T00941106  RH  023%=      5-min Rain = 0
KWA1 132252Z 10002KT 09/M11 A3046 RMK A01 T00931106  RH  023%=      5-min Rain = 0
KWA1 132253Z 09003KT 09/M11 A3046 RMK A01 T00931105  RH  024%=      5-min Rain = 0
KWA1 132254Z 09006KT 09/M10 A3046 RMK A01 T00941103  RH  024%=      5-min Rain = 0
KWA1 132255Z 09005KT 09/M10 A3046 RMK A01 T00941104  RH  024%=      5-min Rain = 0
KWA1 132256Z 11004KT 09/M11 A3046 RMK A01 T00931106  RH  023%=      5-min Rain = 0
KWA1 132257Z 12003KT 09/M11 A3046 RMK A01 T00931105  RH  024%=      5-min Rain = 0
KWA1 132258Z 12003KT 09/M10 A3046 RMK A01 T00931103  RH  024%=      5-min Rain = 0
KWA1 132259Z 11004KT 09/M10 A3046 RMK A01 T00931104  RH  024%=      5-min Rain = 0
KWA1 132300Z 10005KT 09/M10 A3046 RMK A01 T00931104  RH  024%=      5-min Rain = 0
KWA1 132301Z 10005KT 09/M10 A3046 RMK A01 T00931104  RH  024%=      5-min Rain = 0
KWA1 132302Z 11005KT 09/M10 A3045 RMK A01 T00941101  RH  024%=      5-min Rain = 0
KWA1 132303Z 10005KT 09/M10 A3045 RMK A01 T00941103  RH  024%=      5-min Rain = 0
KWA1 132304Z 10006KT 09/M10 A3045 RMK A01 T00941103  RH  024%=      5-min Rain = 0
KWA1 132305Z 10007KT 09/M10 A3045 RMK A01 T00941103  RH  024%=      5-min Rain = 0
KWA1 132306Z 08006KT 09/M10 A3045 RMK A01 T00941103  RH  024%=      5-min Rain = 0
KWA1 132307Z 09005KT 09/M10 A3045 RMK A01 T00941103  RH  024%=      5-min Rain = 0
KWA1 132308Z 08005KT 09/M10 A3045 RMK A01 T00931103  RH  024%=      5-min Rain = 0
KWA1 132309Z 07005KT 09/M10 A3045 RMK A01 T00931104  RH  024%=      5-min Rain = 0
KWA1 132310Z 07005KT 09/M10 A3046 RMK A01 T00931104  RH  024%=      5-min Rain = 0
KWA1 132311Z 08005KT 09/M10 A3045 RMK A01 T00921104  RH  024%=      5-min Rain = 0
KWA1 132312Z 08005KT 09/M10 A3046 RMK A01 T00921103  RH  024%=      5-min Rain = 0
KWA1 132313Z 08005KT 09/M10 A3046 RMK A01 T00921103  RH  024%=      5-min Rain = 0
KWA1 132314Z 09004KT 09/M10 A3045 RMK A01 T00921104  RH  024%=      5-min Rain = 0
KWA1 132315Z 09004KT 09/M10 A3045 RMK A01 T00921104  RH  024%=      5-min Rain = 0
KWA1 132316Z 09005KT 09/M11 A3045 RMK A01 T00921106  RH  024%=      5-min Rain = 0
KWA1 132317Z 09005KT 09/M11 A3045 RMK A01 T00921106  RH  024%=      5-min Rain = 0
KWA1 132318Z 09005KT 09/M11 A3045 RMK A01 T00921105  RH  024%=      5-min Rain = 0
KWA1 132319Z 09005KT 09/M10 A3045 RMK A01 T00921103  RH  024%=      5-min Rain = 0
KWA1 132320Z 08004KT 09/M10 A3045 RMK A01 T00921103  RH  024%=      5-min Rain = 0
KWA1 132321Z 09005KT 09/M10 A3045 RMK A01 T00921101  RH  024%=      5-min Rain = 0
KWA1 132322Z 10006KT 09/M10 A3045 RMK A01 T00921104  RH  024%=      5-min Rain = 0
KWA1 132323Z 10005KT 09/M10 A3045 RMK A01 T00921104  RH  024%=      5-min Rain = 0
KWA1 132324Z 10006KT 09/M10 A3045 RMK A01 T00911104  RH  024%=      5-min Rain = 0
KWA1 132325Z 10005KT 09/M10 A3045 RMK A01 T00911104  RH  024%=      5-min Rain = 0
KWA1 132326Z 10005KT 09/M11 A3045 RMK A01 T00911105  RH  024%=      5-min Rain = 0
KWA1 132327Z 10004KT 09/M10 A3045 RMK A01 T00901102  RH  024%=      5-min Rain = 0
KWA1 132328Z 09005KT 09/M10 A3045 RMK A01 T00901101  RH  025%=      5-min Rain = 0
KWA1 132329Z 08005KT 09/M10 A3045 RMK A01 T00891103  RH  025%=      5-min Rain = 0
KWA1 132330Z 08005KT 09/M10 A3045 RMK A01 T00891104  RH  024%=      5-min Rain = 0
KWA1 132331Z 08005KT 09/M11 A3045 RMK A01 T00891105  RH  024%=      5-min Rain = 0
KWA1 132332Z 08005KT 09/M11 A3045 RMK A01 T00881105  RH  024%=      5-min Rain = 0
KWA1 132333Z 09005KT 09/M11 A3045 RMK A01 T00881105  RH  024%=      5-min Rain = 0
KWA1 132334Z 09004KT 09/M10 A3045 RMK A01 T00871104  RH  025%=      5-min Rain = 0
KWA1 132335Z 09005KT 09/M10 A3045 RMK A01 T00871103  RH  025%=      5-min Rain = 0
KWA1 132336Z 09005KT 09/M10 A3045 RMK A01 T00871102  RH  025%=      5-min Rain = 0
KWA1 132337Z 08005KT 09/M10 A3045 RMK A01 T00871102  RH  025%=      5-min Rain = 0
KWA1 132338Z 08005KT 09/M10 A3045 RMK A01 T00861102  RH  025%=      5-min Rain = 0
KWA1 132339Z 08005KT 08/M10 A3045 RMK A01 T00841102  RH  026%=      5-min Rain = 0
KWA1 132340Z 07005KT 08/M10 A3045 RMK A01 T00831102  RH  026%=      5-min Rain = 0
KWA1 132341Z 07005KT 08/M10 A3045 RMK A01 T00821102  RH  026%=      5-min Rain = 0
KWA1 132342Z 07005KT 08/M10 A3045 RMK A01 T00811102  RH  026%=      5-min Rain = 0
KWA1 132343Z 07005KT 08/M10 A3045 RMK A01 T00801102  RH  026%=      5-min Rain = 0
KWA1 132344Z 07005KT 08/M10 A3045 RMK A01 T00791103  RH  026%=      5-min Rain = 0
KWA1 132345Z 07005KT 08/M10 A3045 RMK A01 T00791103  RH  026%=      5-min Rain = 0
KWA1 132346Z 08005KT 08/M10 A3045 RMK A01 T00781103  RH  026%=      5-min Rain = 0
KWA1 132347Z 07005KT 08/M10 A3045 RMK A01 T00771104  RH  027%=      5-min Rain = 0
KWA1 132348Z 07005KT 08/M10 A3045 RMK A01 T00761104  RH  027%=      5-min Rain = 0
KWA1 132349Z 07005KT 08/M10 A3045 RMK A01 T00751104  RH  027%=      5-min Rain = 0
KWA1 132350Z 07005KT 07/M10 A3045 RMK A01 T00731104  RH  027%=      5-min Rain = 0
KWA1 132351Z 07005KT 07/M10 A3045 RMK A01 T00721103  RH  027%=      5-min Rain = 0
KWA1 132352Z 07005KT 07/M10 A3045 RMK A01 T00711104  RH  028%=      5-min Rain = 0
KWA1 132353Z 07006KT 07/M10 A3045 RMK A01 T00701103  RH  028%=      5-min Rain = 0
KWA1 132354Z 07006KT 07/M10 A3045 RMK A01 T00681104  RH  028%=      5-min Rain = 0
KWA1 132355Z 07006KT 07/M10 A3045 RMK A01 T00671103  RH  028%=      5-min Rain = 0
KWA1 132356Z 07006KT 07/M10 A3045 RMK A01 T00661104  RH  029%=      5-min Rain = 0
KWA1 132357Z 07006KT 07/M10 A3044 RMK A01 T00651104  RH  029%=      5-min Rain = 0
KWA1 132358Z 07006KT 06/M10 A3044 RMK A01 T00641103  RH  029%=      5-min Rain = 0
KWA1 132359Z 07006KT 06/M10 A3044 RMK A01 T00641103  RH  029%=      5-min Rain = 0
KWA1 140000Z 07006KT 06/M10 A3044 RMK A01 T00621104  RH  029%=      5-min Rain = 0
KWA1 140001Z 07006KT 06/M10 A3044 RMK A01 T00611104  RH  030%=      5-min Rain = 0
KWA1 140002Z 07007KT 06/M10 A3044 RMK A01 T00601103  RH  030%=      5-min Rain = 0
KWA1 140003Z 07007KT 06/M10 A3044 RMK A01 T00591104  RH  030%=      5-min Rain = 0
KWA1 140004Z 07007KT 06/M10 A3044 RMK A01 T00581104  RH  030%=      5-min Rain = 0
KWA1 140005Z 07007KT 06/M10 A3044 RMK A01 T00571104  RH  030%=      5-min Rain = 0
KWA1 140006Z 07007KT 06/M10 A3044 RMK A01 T00561104  RH  030%=      5-min Rain = 0
KWA1 140007Z 07006KT 06/M10 A3044 RMK A01 T00551104  RH  031%=      5-min Rain = 0
KWA1 140008Z 07006KT 06/M10 A3044 RMK A01 T00551104  RH  031%=      5-min Rain = 0
KWA1 140009Z 07006KT 05/M10 A3044 RMK A01 T00531103  RH  031%=      5-min Rain = 0
KWA1 140010Z 07006KT 05/M10 A3044 RMK A01 T00521103  RH  032%=      5-min Rain = 0
KWA1 140011Z 07006KT 05/M10 A3044 RMK A01 T00511102  RH  032%=      5-min Rain = 0
KWA1 140012Z 07006KT 05/M10 A3044 RMK A01 T00501102  RH  032%=      5-min Rain = 0
KWA1 140013Z 07006KT 05/M10 A3044 RMK A01 T00491102  RH  033%=      5-min Rain = 0
KWA1 140014Z 07007KT 05/M10 A3044 RMK A01 T00491101  RH  033%=      5-min Rain = 0
KWA1 140015Z 07006KT 05/M10 A3044 RMK A01 T00481102  RH  033%=      5-min Rain = 0
KWA1 140016Z 07006KT 05/M10 A3044 RMK A01 T00471102  RH  033%=      5-min Rain = 0
KWA1 140017Z 07006KT 05/M10 A3044 RMK A01 T00471102  RH  033%=      5-min Rain = 0
KWA1 140018Z 07006KT 05/M10 A3044 RMK A01 T00461103  RH  033%=      5-min Rain = 0
KWA1 140019Z 07007KT 05/M10 A3044 RMK A01 T00451103  RH  033%=      5-min Rain = 0
KWA1 140020Z 07007KT 05/M10 A3044 RMK A01 T00451103  RH  033%=      5-min Rain = 0
KWA1 140021Z 07006KT 04/M10 A3044 RMK A01 T00441103  RH  034%=      5-min Rain = 0
KWA1 140022Z 07006KT 04/M10 A3044 RMK A01 T00441103  RH  034%=      5-min Rain = 0
KWA1 140023Z 07006KT 04/M10 A3044 RMK A01 T00441102  RH  034%=      5-min Rain = 0
KWA1 140024Z 07006KT 04/M10 A3044 RMK A01 T00431102  RH  034%=      5-min Rain = 0
KWA1 140025Z 07006KT 04/M10 A3044 RMK A01 T00431102  RH  034%=      5-min Rain = 0
KWA1 140026Z 07007KT 04/M10 A3044 RMK A01 T00431102  RH  034%=      5-min Rain = 0
KWA1 140027Z 07007KT 04/M10 A3044 RMK A01 T00421101  RH  034%=      5-min Rain = 0
KWA1 140028Z 07007KT 04/M10 A3044 RMK A01 T00421100  RH  035%=      5-min Rain = 0
KWA1 140029Z 07007KT 04/M10 A3044 RMK A01 T00411101  RH  035%=      5-min Rain = 0
KWA1 140030Z 07007KT 04/M10 A3044 RMK A01 T00401102  RH  035%=      5-min Rain = 0
KWA1 140031Z 07007KT 04/M10 A3044 RMK A01 T00391102  RH  035%=      5-min Rain = 0
KWA1 140032Z 06007KT 04/M10 A3044 RMK A01 T00391103  RH  035%=      5-min Rain = 0
KWA1 140033Z 06007KT 04/M10 A3044 RMK A01 T00391103  RH  035%=      5-min Rain = 0
KWA1 140034Z 06007KT 04/M10 A3044 RMK A01 T00391103  RH  035%=      5-min Rain = 0
KWA1 140035Z 06007KT 04/M10 A3044 RMK A01 T00391104  RH  035%=      5-min Rain = 0
KWA1 140036Z 06007KT 04/M10 A3044 RMK A01 T00391104  RH  035%=      5-min Rain = 0
KWA1 140037Z 07007KT 04/M10 A3044 RMK A01 T00381103  RH  035%=      5-min Rain = 0
KWA1 140038Z 07006KT 04/M10 A3044 RMK A01 T00381103  RH  035%=      5-min Rain = 0
KWA1 140039Z 07007KT 04/M10 A3044 RMK A01 T00371104  RH  035%=      5-min Rain = 0
KWA1 140040Z 07007KT 04/M10 A3044 RMK A01 T00361104  RH  035%=      5-min Rain = 0
KWA1 140041Z 07007KT 04/M10 A3044 RMK A01 T00361103  RH  035%=      5-min Rain = 0
KWA1 140042Z 07007KT 04/M10 A3044 RMK A01 T00351103  RH  036%=      5-min Rain = 0
KWA1 140043Z 07007KT 03/M10 A3044 RMK A01 T00341102  RH  036%=      5-min Rain = 0
KWA1 140044Z 07007KT 03/M10 A3044 RMK A01 T00331102  RH  036%=      5-min Rain = 0
KWA1 140045Z 07007KT 03/M10 A3044 RMK A01 T00331101  RH  037%=      5-min Rain = 0
KWA1 140046Z 07007KT 03/M10 A3044 RMK A01 T00331102  RH  037%=      5-min Rain = 0
KWA1 140047Z 07007KT 03/M10 A3044 RMK A01 T00321102  RH  037%=      5-min Rain = 0
KWA1 140048Z 07007KT 03/M10 A3044 RMK A01 T00321101  RH  037%=      5-min Rain = 0
KWA1 140049Z 07007KT 03/M10 A3044 RMK A01 T00321101  RH  037%=      5-min Rain = 0
KWA1 140050Z 07007KT 03/M10 A3044 RMK A01 T00321102  RH  037%=      5-min Rain = 0
KWA1 140051Z 07007KT 03/M10 A3044 RMK A01 T00321102  RH  037%=      5-min Rain = 0
KWA1 140052Z 07007KT 03/M10 A3044 RMK A01 T00321102  RH  037%=      5-min Rain = 0
KWA1 140053Z 07008KT 03/M10 A3044 RMK A01 T00321102  RH  037%=      5-min Rain = 0
KWA1 140054Z 07008KT 03/M10 A3044 RMK A01 T00321102  RH  037%=      5-min Rain = 0
KWA1 140055Z 07007KT 03/M10 A3044 RMK A01 T00311102  RH  037%=      5-min Rain = 0
KWA1 140056Z 07007KT 03/M10 A3044 RMK A01 T00321102  RH  037%=      5-min Rain = 0
KWA1 140057Z 07008KT 03/M10 A3044 RMK A01 T00321102  RH  037%=      5-min Rain = 0
KWA1 140058Z 07008KT 03/M10 A3044 RMK A01 T00321102  RH  037%=      5-min Rain = 0
KWA1 140059Z 07008KT 03/M10 A3044 RMK A01 T00321103  RH  037%=      5-min Rain = 0
KWA1 140100Z 08008KT 03/M10 A3044 RMK A01 T00311103  RH  037%=      5-min Rain = 0
KWA1 140101Z 08008KT 03/M10 A3044 RMK A01 T00301103  RH  037%=      5-min Rain = 0
KWA1 140102Z 08008KT 03/M10 A3044 RMK A01 T00301103  RH  037%=      5-min Rain = 0
KWA1 140103Z 08008KT 03/M10 A3044 RMK A01 T00301104  RH  037%=      5-min Rain = 0
KWA1 140104Z 08008KT 03/M10 A3044 RMK A01 T00311104  RH  037%=      5-min Rain = 0
KWA1 140105Z 08008KT 03/M11 A3044 RMK A01 T00311105  RH  036%=      5-min Rain = 0
KWA1 140106Z 08008KT 03/M11 A3044 RMK A01 T00311105  RH  036%=      5-min Rain = 0
KWA1 140107Z 08008KT 03/M11 A3044 RMK A01 T00301106  RH  036%=      5-min Rain = 0
KWA1 140108Z 08008KT 03/M11 A3044 RMK A01 T00301106  RH  036%=      5-min Rain = 0
KWA1 140109Z 08007KT 03/M11 A3044 RMK A01 T00301106  RH  036%=      5-min Rain = 0
KWA1 140110Z 09007KT 03/M11 A3044 RMK A01 T00301106  RH  036%=      5-min Rain = 0
KWA1 140111Z 08007KT 03/M11 A3043 RMK A01 T00291105  RH  037%=      5-min Rain = 0
KWA1 140112Z 09007KT 03/M10 A3043 RMK A01 T00291104  RH  037%=      5-min Rain = 0
KWA1 140113Z 09007KT 03/M11 A3043 RMK A01 T00281105  RH  037%=      5-min Rain = 0
KWA1 140114Z 09007KT 03/M11 A3043 RMK A01 T00281105  RH  037%=      5-min Rain = 0
KWA1 140115Z 09007KT 03/M11 A3043 RMK A01 T00281105  RH  037%=      5-min Rain = 0
KWA1 140116Z 09008KT 03/M10 A3043 RMK A01 T00291104  RH  037%=      5-min Rain = 0
KWA1 140117Z 09008KT 03/M11 A3043 RMK A01 T00291105  RH  037%=      5-min Rain = 0
KWA1 140118Z 09007KT 03/M10 A3043 RMK A01 T00291104  RH  037%=      5-min Rain = 0
KWA1 140119Z 10007KT 03/M10 A3043 RMK A01 T00301104  RH  037%=      5-min Rain = 0
KWA1 140120Z 10007KT 03/M10 A3043 RMK A01 T00311103  RH  037%=      5-min Rain = 0
KWA1 140121Z 10007KT 03/M10 A3043 RMK A01 T00331103  RH  036%=      5-min Rain = 0
KWA1 140122Z 10008KT 03/M10 A3043 RMK A01 T00341103  RH  036%=      5-min Rain = 0
KWA1 140123Z 10007KT 03/M10 A3043 RMK A01 T00341104  RH  036%=      5-min Rain = 0
KWA1 140124Z 10007KT 03/M10 A3043 RMK A01 T00341104  RH  036%=      5-min Rain = 0
KWA1 140125Z 10007KT 03/M10 A3043 RMK A01 T00331104  RH  036%=      5-min Rain = 0
KWA1 140126Z 10007KT 03/M11 A3043 RMK A01 T00311105  RH  036%=      5-min Rain = 0
KWA1 140127Z 10006KT 03/M11 A3043 RMK A01 T00311105  RH  036%=      5-min Rain = 0
KWA1 140128Z 10006KT 03/M11 A3043 RMK A01 T00291106  RH  036%=      5-min Rain = 0
KWA1 140129Z 10006KT 03/M11 A3043 RMK A01 T00271107  RH  037%=      5-min Rain = 0
KWA1 140130Z 10006KT 03/M11 A3043 RMK A01 T00251107  RH  037%=      5-min Rain = 0
KWA1 140131Z 10006KT 02/M11 A3043 RMK A01 T00241106  RH  038%=      5-min Rain = 0
KWA1 140132Z 10006KT 02/M11 A3043 RMK A01 T00231106  RH  038%=      5-min Rain = 0
KWA1 140133Z 10006KT 02/M11 A3043 RMK A01 T00231106  RH  038%=      5-min Rain = 0
KWA1 140134Z 10006KT 02/M11 A3043 RMK A01 T00231105  RH  038%=      5-min Rain = 0
KWA1 140135Z 10006KT 02/M11 A3043 RMK A01 T00221106  RH  038%=      5-min Rain = 0
KWA1 140136Z 11006KT 02/M11 A3043 RMK A01 T00221106  RH  038%=      5-min Rain = 0
KWA1 140137Z 11006KT 02/M10 A3043 RMK A01 T00231104  RH  038%=      5-min Rain = 0
KWA1 140138Z 11006KT 02/M10 A3043 RMK A01 T00241103  RH  038%=      5-min Rain = 0
KWA1 140139Z 11006KT 03/M10 A3043 RMK A01 T00251103  RH  038%=      5-min Rain = 0
KWA1 140140Z 11006KT 03/M10 A3043 RMK A01 T00261103  RH  038%=      5-min Rain = 0
KWA1 140141Z 11005KT 03/M10 A3043 RMK A01 T00271103  RH  038%=      5-min Rain = 0
KWA1 140142Z 11005KT 03/M10 A3043 RMK A01 T00281103  RH  038%=      5-min Rain = 0
KWA1 140143Z 11005KT 03/M10 A3043 RMK A01 T00281103  RH  038%=      5-min Rain = 0
KWA1 140144Z 11005KT 03/M10 A3043 RMK A01 T00281103  RH  038%=      5-min Rain = 0
KWA1 140145Z 11006KT 03/M10 A3043 RMK A01 T00281103  RH  038%=      5-min Rain = 0
KWA1 140146Z 11006KT 03/M10 A3043 RMK A01 T00281103  RH  037%=      5-min Rain = 0
KWA1 140147Z 11006KT 03/M10 A3043 RMK A01 T00281104  RH  037%=      5-min Rain = 0
KWA1 140148Z 11006KT 03/M10 A3043 RMK A01 T00291103  RH  037%=      5-min Rain = 0
KWA1 140149Z 11006KT 03/M10 A3043 RMK A01 T00301103  RH  037%=      5-min Rain = 0
KWA1 140150Z 11005KT 03/M10 A3044 RMK A01 T00281104  RH  037%=      5-min Rain = 0
KWA1 140151Z 11006KT 03/M10 A3044 RMK A01 T00271104  RH  037%=      5-min Rain = 0
KWA1 140152Z 11006KT 03/M10 A3044 RMK A01 T00261104  RH  038%=      5-min Rain = 0
KWA1 140153Z 11006KT 02/M11 A3044 RMK A01 T00231105  RH  038%=      5-min Rain = 0
KWA1 140154Z 11006KT 02/M11 A3043 RMK A01 T00211106  RH  039%=      5-min Rain = 0
KWA1 140155Z 11007KT 02/M11 A3043 RMK A01 T00191106  RH  039%=      5-min Rain = 0
KWA1 140156Z 11007KT 02/M11 A3043 RMK A01 T00181106  RH  039%=      5-min Rain = 0
KWA1 140157Z 12007KT 02/M11 A3043 RMK A01 T00171107  RH  039%=      5-min Rain = 0
KWA1 140158Z 12008KT 02/M11 A3043 RMK A01 T00161107  RH  040%=      5-min Rain = 0
KWA1 140159Z 12009KT 01/M11 A3043 RMK A01 T00141107  RH  040%=      5-min Rain = 0
KWA1 140200Z 12008KT 01/M11 A3043 RMK A01 T00141107  RH  040%=      5-min Rain = 0
KWA1 140201Z 12008KT 01/M11 A3043 RMK A01 T00131108  RH  040%=      5-min Rain = 0
KWA1 140202Z 12008KT 01/M11 A3043 RMK A01 T00131108  RH  040%=      5-min Rain = 0
KWA1 140203Z 13008KT 01/M11 A3043 RMK A01 T00131108  RH  040%=      5-min Rain = 0
KWA1 140204Z 13008KT 01/M11 A3043 RMK A01 T00131108  RH  040%=      5-min Rain = 0
KWA1 140205Z 13008KT 01/M11 A3043 RMK A01 T00121108  RH  040%=      5-min Rain = 0
KWA1 140206Z 12008KT 01/M11 A3043 RMK A01 T00121108  RH  040%=      5-min Rain = 0
KWA1 140207Z 12008KT 01/M11 A3043 RMK A01 T00121107  RH  041%=      5-min Rain = 0
KWA1 140208Z 13007KT 01/M11 A3043 RMK A01 T00121107  RH  041%=      5-min Rain = 0
KWA1 140209Z 12007KT 01/M11 A3042 RMK A01 T00131107  RH  041%=      5-min Rain = 0
KWA1 140210Z 13007KT 01/M11 A3043 RMK A01 T00131107  RH  041%=      5-min Rain = 0
KWA1 140211Z 13007KT 01/M11 A3043 RMK A01 T00131106  RH  041%=      5-min Rain = 0
KWA1 140212Z 13008KT 01/M11 A3043 RMK A01 T00121106  RH  041%=      5-min Rain = 0
KWA1 140213Z 13007KT 01/M11 A3043 RMK A01 T00121106  RH  041%=      5-min Rain = 0
KWA1 140214Z 13007KT 01/M11 A3043 RMK A01 T00121106  RH  041%=      5-min Rain = 0
KWA1 140215Z 12007KT 01/M11 A3043 RMK A01 T00131105  RH  041%=      5-min Rain = 0
KWA1 140216Z 13007KT 01/M10 A3043 RMK A01 T00141104  RH  041%=      5-min Rain = 0
KWA1 140217Z 13007KT 02/M10 A3043 RMK A01 T00151104  RH  041%=      5-min Rain = 0
KWA1 140218Z 13007KT 02/M10 A3043 RMK A01 T00151104  RH  041%=      5-min Rain = 0
KWA1 140219Z 13007KT 02/M10 A3043 RMK A01 T00151104  RH  041%=      5-min Rain = 0
KWA1 140220Z 13007KT 02/M10 A3043 RMK A01 T00151103  RH  041%=      5-min Rain = 0
KWA1 140221Z 13008KT 02/M10 A3043 RMK A01 T00151103  RH  041%=      5-min Rain = 0
KWA1 140222Z 13007KT 01/M10 A3043 RMK A01 T00141103  RH  041%=      5-min Rain = 0
KWA1 140223Z 13008KT 02/M10 A3043 RMK A01 T00151103  RH  041%=      5-min Rain = 0
KWA1 140224Z 13008KT 02/M10 A3043 RMK A01 T00151103  RH  041%=      5-min Rain = 0
KWA1 140225Z 13008KT 02/M10 A3043 RMK A01 T00161102  RH  041%=      5-min Rain = 0
KWA1 140226Z 13008KT 02/M10 A3043 RMK A01 T00161102  RH  041%=      5-min Rain = 0
KWA1 140227Z 13008KT 02/M10 A3043 RMK A01 T00171103  RH  041%=      5-min Rain = 0
KWA1 140228Z 13008KT 02/M10 A3043 RMK A01 T00171103  RH  041%=      5-min Rain = 0
KWA1 140229Z 13008KT 02/M10 A3043 RMK A01 T00181103  RH  040%=      5-min Rain = 0
KWA1 140230Z 13007KT 02/M10 A3043 RMK A01 T00181103  RH  040%=      5-min Rain = 0
KWA1 140231Z 13007KT 02/M10 A3043 RMK A01 T00191103  RH  040%=      5-min Rain = 0
KWA1 140232Z 13008KT 02/M10 A3043 RMK A01 T00191103  RH  040%=      5-min Rain = 0
KWA1 140233Z 13008KT 02/M10 A3043 RMK A01 T00191103  RH  040%=      5-min Rain = 0
KWA1 140234Z 13008KT 02/M10 A3043 RMK A01 T00191103  RH  040%=      5-min Rain = 0
KWA1 140235Z 14008KT 02/M10 A3043 RMK A01 T00201103  RH  040%=      5-min Rain = 0
KWA1 140236Z 13008KT 02/M10 A3043 RMK A01 T00201103  RH  040%=      5-min Rain = 0
KWA1 140237Z 13008KT 02/M10 A3043 RMK A01 T00201103  RH  040%=      5-min Rain = 0
KWA1 140238Z 13008KT 02/M10 A3043 RMK A01 T00211103  RH  040%=      5-min Rain = 0
KWA1 140239Z 13008KT 02/M10 A3043 RMK A01 T00211103  RH  039%=      5-min Rain = 0
KWA1 140240Z 13007KT 02/M10 A3043 RMK A01 T00211103  RH  040%=      5-min Rain = 0
KWA1 140241Z 13007KT 02/M10 A3043 RMK A01 T00201103  RH  040%=      5-min Rain = 0
KWA1 140242Z 13007KT 02/M10 A3043 RMK A01 T00191103  RH  040%=      5-min Rain = 0
KWA1 140243Z 13007KT 02/M10 A3043 RMK A01 T00191102  RH  040%=      5-min Rain = 0
KWA1 140244Z 13007KT 02/M10 A3043 RMK A01 T00171103  RH  040%=      5-min Rain = 0
KWA1 140245Z 13007KT 02/M10 A3043 RMK A01 T00171103  RH  041%=      5-min Rain = 0
KWA1 140246Z 13006KT 02/M10 A3043 RMK A01 T00161103  RH  041%=      5-min Rain = 0
KWA1 140247Z 13007KT 02/M10 A3043 RMK A01 T00151103  RH  041%=      5-min Rain = 0
KWA1 140248Z 13007KT 01/M10 A3043 RMK A01 T00141103  RH  041%=      5-min Rain = 0
KWA1 140249Z 13007KT 01/M10 A3043 RMK A01 T00141102  RH  042%=      5-min Rain = 0
KWA1 140250Z 14007KT 01/M10 A3043 RMK A01 T00131103  RH  042%=      5-min Rain = 0
KWA1 140251Z 14007KT 01/M10 A3043 RMK A01 T00121102  RH  042%=      5-min Rain = 0
KWA1 140252Z 14007KT 01/M10 A3043 RMK A01 T00121102  RH  042%=      5-min Rain = 0
KWA1 140253Z 14008KT 01/M10 A3043 RMK A01 T00121102  RH  042%=      5-min Rain = 0
KWA1 140254Z 14008KT 01/M10 A3043 RMK A01 T00121102  RH  042%=      5-min Rain = 0
KWA1 140255Z 14008KT 01/M10 A3043 RMK A01 T00131101  RH  042%=      5-min Rain = 0
KWA1 140256Z 14008KT 01/M10 A3043 RMK A01 T00131101  RH  042%=      5-min Rain = 0
KWA1 140257Z 14008KT 01/M10 A3043 RMK A01 T00141101  RH  042%=      5-min Rain = 0
KWA1 140258Z 14008KT 02/M10 A3043 RMK A01 T00151101  RH  042%=      5-min Rain = 0
KWA1 140259Z 14007KT 02/M10 A3043 RMK A01 T00151101  RH  042%=      5-min Rain = 0
KWA1 140300Z 14007KT 02/M10 A3043 RMK A01 T00161101  RH  041%=      5-min Rain = 0
KWA1 140301Z 14007KT 02/M10 A3043 RMK A01 T00161101  RH  041%=      5-min Rain = 0
KWA1 140302Z 14007KT 02/M10 A3043 RMK A01 T00181101  RH  041%=      5-min Rain = 0
KWA1 140303Z 14007KT 02/M10 A3043 RMK A01 T00171101  RH  041%=      5-min Rain = 0
KWA1 140304Z 14007KT 02/M10 A3043 RMK A01 T00161101  RH  041%=      5-min Rain = 0
KWA1 140305Z 14007KT 02/M10 A3043 RMK A01 T00151102  RH  041%=      5-min Rain = 0
KWA1 140306Z 14008KT 02/M10 A3043 RMK A01 T00151102  RH  042%=      5-min Rain = 0
KWA1 140307Z 14008KT 02/M10 A3043 RMK A01 T00151102  RH  042%=      5-min Rain = 0
KWA1 140308Z 14008KT 01/M10 A3043 RMK A01 T00141101  RH  042%=      5-min Rain = 0
KWA1 140309Z 14007KT 02/M10 A3043 RMK A01 T00151101  RH  042%=      5-min Rain = 0
KWA1 140310Z 14008KT 02/M10 A3043 RMK A01 T00151101  RH  042%=      5-min Rain = 0
KWA1 140311Z 14007KT 02/M10 A3043 RMK A01 T00161101  RH  042%=      5-min Rain = 0
KWA1 140312Z 14007KT 02/M10 A3043 RMK A01 T00171101  RH  041%=      5-min Rain = 0
KWA1 140313Z 14007KT 02/M10 A3043 RMK A01 T00171101  RH  041%=      5-min Rain = 0
KWA1 140314Z 14008KT 02/M10 A3043 RMK A01 T00161102  RH  041%=      5-min Rain = 0
KWA1 140315Z 14007KT 01/M10 A3043 RMK A01 T00141103  RH  041%=      5-min Rain = 0
KWA1 140316Z 14007KT 01/M10 A3043 RMK A01 T00131103  RH  042%=      5-min Rain = 0
KWA1 140317Z 14007KT 01/M10 A3043 RMK A01 T00131103  RH  042%=      5-min Rain = 0
KWA1 140318Z 14007KT 01/M10 A3043 RMK A01 T00131102  RH  042%=      5-min Rain = 0
KWA1 140319Z 14007KT 01/M10 A3043 RMK A01 T00131102  RH  042%=      5-min Rain = 0
KWA1 140320Z 14007KT 01/M10 A3043 RMK A01 T00131102  RH  042%=      5-min Rain = 0
KWA1 140321Z 14007KT 01/M10 A3043 RMK A01 T00121102  RH  042%=      5-min Rain = 0
KWA1 140322Z 14007KT 01/M10 A3043 RMK A01 T00121102  RH  042%=      5-min Rain = 0
KWA1 140323Z 14007KT 01/M10 A3043 RMK A01 T00121102  RH  042%=      5-min Rain = 0
KWA1 140324Z 14007KT 01/M10 A3043 RMK A01 T00121102  RH  042%=      5-min Rain = 0
KWA1 140325Z 14007KT 01/M10 A3043 RMK A01 T00121102  RH  042%=      5-min Rain = 0
KWA1 140326Z 14007KT 01/M10 A3043 RMK A01 T00121102  RH  042%=      5-min Rain = 0
KWA1 140327Z 14007KT 01/M10 A3043 RMK A01 T00131102  RH  042%=      5-min Rain = 0
KWA1 140328Z 14008KT 01/M10 A3043 RMK A01 T00131102  RH  042%=      5-min Rain = 0
KWA1 140329Z 14008KT 02/M10 A3043 RMK A01 T00151102  RH  041%=      5-min Rain = 0
KWA1 140330Z 14007KT 02/M10 A3043 RMK A01 T00151103  RH  041%=      5-min Rain = 0
KWA1 140331Z 14008KT 02/M10 A3043 RMK A01 T00161103  RH  041%=      5-min Rain = 0
KWA1 140332Z 14008KT 02/M10 A3043 RMK A01 T00171103  RH  041%=      5-min Rain = 0
KWA1 140333Z 14008KT 02/M10 A3043 RMK A01 T00161103  RH  041%=      5-min Rain = 0
KWA1 140334Z 14008KT 02/M10 A3043 RMK A01 T00161103  RH  041%=      5-min Rain = 0
KWA1 140335Z 14007KT 02/M10 A3043 RMK A01 T00151104  RH  041%=      5-min Rain = 0
KWA1 140336Z 14008KT 02/M10 A3044 RMK A01 T00151104  RH  041%=      5-min Rain = 0
KWA1 140337Z 14008KT 01/M10 A3044 RMK A01 T00141104  RH  041%=      5-min Rain = 0
KWA1 140338Z 14008KT 01/M10 A3044 RMK A01 T00141104  RH  041%=      5-min Rain = 0
KWA1 140339Z 14008KT 02/M10 A3044 RMK A01 T00151103  RH  041%=      5-min Rain = 0
KWA1 140340Z 14008KT 02/M10 A3044 RMK A01 T00161103  RH  041%=      5-min Rain = 0
KWA1 140341Z 14008KT 02/M10 A3044 RMK A01 T00171102  RH  041%=      5-min Rain = 0
KWA1 140342Z 14007KT 02/M10 A3044 RMK A01 T00181102  RH  041%=      5-min Rain = 0
KWA1 140343Z 14008KT 02/M10 A3044 RMK A01 T00191102  RH  040%=      5-min Rain = 0
KWA1 140344Z 14008KT 02/M10 A3044 RMK A01 T00201102  RH  040%=      5-min Rain = 0
KWA1 140345Z 14008KT 02/M10 A3044 RMK A01 T00211103  RH  040%=      5-min Rain = 0
KWA1 140346Z 14008KT 02/M10 A3044 RMK A01 T00211103  RH  039%=      5-min Rain = 0
KWA1 140347Z 14007KT 02/M10 A3044 RMK A01 T00211103  RH  039%=      5-min Rain = 0
KWA1 140348Z 14007KT 02/M10 A3044 RMK A01 T00211103  RH  039%=      5-min Rain = 0
KWA1 140349Z 14007KT 02/M10 A3044 RMK A01 T00211103  RH  039%=      5-min Rain = 0
KWA1 140350Z 14007KT 02/M10 A3044 RMK A01 T00211103  RH  039%=      5-min Rain = 0
KWA1 140351Z 14007KT 02/M10 A3044 RMK A01 T00221103  RH  039%=      5-min Rain = 0
KWA1 140352Z 14007KT 02/M10 A3044 RMK A01 T00221103  RH  039%=      5-min Rain = 0
KWA1 140353Z 14007KT 02/M10 A3044 RMK A01 T00211103  RH  039%=      5-min Rain = 0
KWA1 140354Z 14008KT 02/M10 A3044 RMK A01 T00211103  RH  039%=      5-min Rain = 0
KWA1 140355Z 14009KT 02/M10 A3044 RMK A01 T00191104  RH  040%=      5-min Rain = 0
KWA1 140356Z 14008KT 02/M10 A3044 RMK A01 T00181104  RH  040%=      5-min Rain = 0
KWA1 140357Z 14008KT 02/M10 A3044 RMK A01 T00171104  RH  040%=      5-min Rain = 0
KWA1 140358Z 14008KT 02/M10 A3044 RMK A01 T00181103  RH  040%=      5-min Rain = 0
KWA1 140359Z 14008KT 02/M10 A3044 RMK A01 T00191103  RH  040%=      5-min Rain = 0
KWA1 140400Z 14007KT 02/M10 A3044 RMK A01 T00201103  RH  040%=      5-min Rain = 0
KWA1 140401Z 14007KT 02/M10 A3044 RMK A01 T00201103  RH  040%=      5-min Rain = 0
KWA1 140402Z 14007KT 02/M10 A3044 RMK A01 T00211103  RH  040%=      5-min Rain = 0
KWA1 140403Z 14007KT 02/M10 A3044 RMK A01 T00211102  RH  040%=      5-min Rain = 0
KWA1 140404Z 14007KT 02/M10 A3044 RMK A01 T00211102  RH  040%=      5-min Rain = 0
KWA1 140405Z 14007KT 02/M10 A3045 RMK A01 T00211102  RH  040%=      5-min Rain = 0
KWA1 140406Z 14008KT 02/M10 A3045 RMK A01 T00211102  RH  040%=      5-min Rain = 0
KWA1 140407Z 14008KT 02/M10 A3045 RMK A01 T00211102  RH  040%=      5-min Rain = 0
KWA1 140408Z 14008KT 02/M10 A3045 RMK A01 T00211102  RH  040%=      5-min Rain = 0
KWA1 140409Z 14008KT 02/M10 A3045 RMK A01 T00221102  RH  040%=      5-min Rain = 0
KWA1 140410Z 14008KT 02/M10 A3045 RMK A01 T00231102  RH  039%=      5-min Rain = 0
KWA1 140411Z 14008KT 02/M10 A3044 RMK A01 T00231102  RH  039%=      5-min Rain = 0
KWA1 140412Z 14008KT 02/M10 A3044 RMK A01 T00231102  RH  039%=      5-min Rain = 0
KWA1 140413Z 14008KT 02/M10 A3044 RMK A01 T00231102  RH  039%=      5-min Rain = 0
KWA1 140414Z 14008KT 02/M10 A3045 RMK A01 T00241102  RH  039%=      5-min Rain = 0
KWA1 140415Z 14008KT 02/M10 A3045 RMK A01 T00241102  RH  039%=      5-min Rain = 0
KWA1 140416Z 14009KT 02/M10 A3045 RMK A01 T00241102  RH  039%=      5-min Rain = 0
KWA1 140417Z 14009KT 02/M10 A3045 RMK A01 T00231103  RH  039%=      5-min Rain = 0
KWA1 140418Z 15009KT 02/M10 A3045 RMK A01 T00201104  RH  039%=      5-min Rain = 0
KWA1 140419Z 15009KT 02/M11 A3045 RMK A01 T00171105  RH  040%=      5-min Rain = 0
KWA1 140420Z 15009KT 02/M11 A3045 RMK A01 T00151105  RH  041%=      5-min Rain = 0
KWA1 140421Z 15009KT 01/M10 A3045 RMK A01 T00141104  RH  041%=      5-min Rain = 0
KWA1 140422Z 15009KT 01/M10 A3045 RMK A01 T00121104  RH  042%=      5-min Rain = 0
KWA1 140423Z 15009KT 01/M10 A3045 RMK A01 T00101104  RH  042%=      5-min Rain = 0
KWA1 140424Z 15008KT 01/M10 A3045 RMK A01 T00101104  RH  042%=      5-min Rain = 0
KWA1 140425Z 15009KT 01/M11 A3045 RMK A01 T00081105  RH  043%=      5-min Rain = 0
KWA1 140426Z 15009KT 01/M10 A3045 RMK A01 T00071104  RH  043%=      5-min Rain = 0
KWA1 140427Z 15009KT 01/M10 A3045 RMK A01 T00061102  RH  044%=      5-min Rain = 0
KWA1 140428Z 15009KT 01/M10 A3045 RMK A01 T00061101  RH  044%=      5-min Rain = 0
KWA1 140429Z 16009KT 01/M10 A3045 RMK A01 T00061100  RH  045%=      5-min Rain = 0
KWA1 140430Z 16009KT 01/M10 A3045 RMK A01 T00061100  RH  045%=      5-min Rain = 0
KWA1 140431Z 16008KT 01/M10 A3045 RMK A01 T00061099  RH  045%=      5-min Rain = 0
KWA1 140432Z 16009KT 01/M10 A3045 RMK A01 T00061098  RH  046%=      5-min Rain = 0
KWA1 140433Z 16009KT 01/M10 A3045 RMK A01 T00071097  RH  046%=      5-min Rain = 0
KWA1 140434Z 16009KT 01/M10 A3045 RMK A01 T00071098  RH  045%=      5-min Rain = 0
KWA1 140435Z 16009KT 01/M10 A3045 RMK A01 T00081099  RH  045%=      5-min Rain = 0
KWA1 140436Z 16009KT 01/M10 A3045 RMK A01 T00101099  RH  044%=      5-min Rain = 0
KWA1 140437Z 16010KT 01/M10 A3045 RMK A01 T00121100  RH  043%=      5-min Rain = 0
KWA1 140438Z 16009KT 01/M10 A3045 RMK A01 T00141100  RH  042%=      5-min Rain = 0
KWA1 140439Z 16009KT 02/M10 A3045 RMK A01 T00161101  RH  042%=      5-min Rain = 0
KWA1 140440Z 16009KT 02/M10 A3045 RMK A01 T00171101  RH  041%=      5-min Rain = 0
KWA1 140441Z 16009KT 02/M10 A3045 RMK A01 T00171102  RH  041%=      5-min Rain = 0
KWA1 140442Z 16009KT 02/M10 A3045 RMK A01 T00181102  RH  041%=      5-min Rain = 0
KWA1 140443Z 16009KT 02/M10 A3045 RMK A01 T00181102  RH  041%=      5-min Rain = 0
KWA1 140444Z 16008KT 02/M10 A3045 RMK A01 T00171102  RH  041%=      5-min Rain = 0
KWA1 140445Z 16009KT 02/M10 A3045 RMK A01 T00171102  RH  041%=      5-min Rain = 0
KWA1 140446Z 16008KT 02/M10 A3045 RMK A01 T00171102  RH  041%=      5-min Rain = 0
KWA1 140447Z 16008KT 02/M10 A3045 RMK A01 T00161102  RH  041%=      5-min Rain = 0
KWA1 140448Z 16009KT 02/M10 A3045 RMK A01 T00161102  RH  041%=      5-min Rain = 0
KWA1 140449Z 16008KT 02/M10 A3045 RMK A01 T00151102  RH  041%=      5-min Rain = 0
KWA1 140450Z 16008KT 02/M10 A3045 RMK A01 T00151102  RH  041%=      5-min Rain = 0
KWA1 140451Z 16008KT 01/M10 A3045 RMK A01 T00141103  RH  042%=      5-min Rain = 0
KWA1 140452Z 16008KT 01/M10 A3045 RMK A01 T00131103  RH  042%=      5-min Rain = 0
KWA1 140453Z 16008KT 01/M10 A3045 RMK A01 T00121102  RH  042%=      5-min Rain = 0
KWA1 140454Z 16008KT 01/M10 A3045 RMK A01 T00121102  RH  042%=      5-min Rain = 0
KWA1 140455Z 16008KT 01/M10 A3045 RMK A01 T00111102  RH  043%=      5-min Rain = 0
KWA1 140456Z 16008KT 01/M10 A3045 RMK A01 T00101102  RH  043%=      5-min Rain = 0
KWA1 140457Z 16008KT 01/M10 A3045 RMK A01 T00091102  RH  043%=      5-min Rain = 0
KWA1 140458Z 16008KT 01/M10 A3045 RMK A01 T00091101  RH  044%=      5-min Rain = 0
KWA1 140459Z 16009KT 01/M10 A3044 RMK A01 T00081101  RH  044%=      5-min Rain = 0
KWA1 140500Z 16009KT 01/M10 A3044 RMK A01 T00071101  RH  044%=      5-min Rain = 0
KWA1 140501Z 16009KT 01/M10 A3044 RMK A01 T00071101  RH  044%=      5-min Rain = 0
KWA1 140502Z 16009KT 01/M10 A3044 RMK A01 T00071100  RH  044%=      5-min Rain = 0
KWA1 140503Z 16010KT 01/M10 A3044 RMK A01 T00071100  RH  044%=      5-min Rain = 0
KWA1 140504Z 15010KT 01/M10 A3044 RMK A01 T00071100  RH  044%=      5-min Rain = 0
KWA1 140505Z 16009KT 01/M10 A3044 RMK A01 T00071101  RH  044%=      5-min Rain = 0
KWA1 140506Z 16009KT 01/M10 A3044 RMK A01 T00081100  RH  044%=      5-min Rain = 0
KWA1 140507Z 15010KT 01/M10 A3044 RMK A01 T00091100  RH  044%=      5-min Rain = 0
KWA1 140508Z 15009KT 01/M10 A3044 RMK A01 T00091101  RH  044%=      5-min Rain = 0
KWA1 140509Z 15010KT 01/M10 A3044 RMK A01 T00091101  RH  044%=      5-min Rain = 0
KWA1 140510Z 15009KT 01/M10 A3044 RMK A01 T00101101  RH  043%=      5-min Rain = 0
KWA1 140511Z 15009KT 01/M10 A3044 RMK A01 T00111102  RH  043%=      5-min Rain = 0
KWA1 140512Z 15009KT 01/M10 A3043 RMK A01 T00111102  RH  043%=      5-min Rain = 0
KWA1 140513Z 15010KT 01/M10 A3043 RMK A01 T00121102  RH  042%=      5-min Rain = 0
KWA1 140514Z 15010KT 01/M10 A3043 RMK A01 T00121103  RH  042%=      5-min Rain = 0
KWA1 140515Z 15010KT 01/M10 A3043 RMK A01 T00131103  RH  042%=      5-min Rain = 0
KWA1 140516Z 15010KT 01/M10 A3043 RMK A01 T00141103  RH  041%=      5-min Rain = 0
KWA1 140517Z 15010KT 02/M10 A3043 RMK A01 T00151104  RH  041%=      5-min Rain = 0
KWA1 140518Z 15010KT 02/M10 A3043 RMK A01 T00151104  RH  041%=      5-min Rain = 0
KWA1 140519Z 14010KT 02/M11 A3043 RMK A01 T00161105  RH  040%=      5-min Rain = 0
KWA1 140520Z 14010KT 02/M11 A3043 RMK A01 T00161105  RH  040%=      5-min Rain = 0
KWA1 140521Z 14010KT 02/M11 A3043 RMK A01 T00171106  RH  040%=      5-min Rain = 0
KWA1 140522Z 14010KT 02/M11 A3043 RMK A01 T00171106  RH  040%=      5-min Rain = 0
KWA1 140523Z 15010KT 02/M11 A3043 RMK A01 T00171106  RH  040%=      5-min Rain = 0
KWA1 140524Z 15010KT 02/M11 A3043 RMK A01 T00151106  RH  040%=      5-min Rain = 0
KWA1 140525Z 14010KT 02/M11 A3042 RMK A01 T00151106  RH  040%=      5-min Rain = 0
KWA1 140526Z 15010KT 02/M11 A3042 RMK A01 T00151106  RH  040%=      5-min Rain = 0
KWA1 140527Z 15009KT 01/M11 A3042 RMK A01 T00131106  RH  041%=      5-min Rain = 0
KWA1 140528Z 15010KT 01/M11 A3042 RMK A01 T00111106  RH  041%=      5-min Rain = 0
KWA1 140529Z 15010KT 01/M11 A3042 RMK A01 T00091106  RH  042%=      5-min Rain = 0
KWA1 140530Z 15009KT 01/M11 A3042 RMK A01 T00081106  RH  042%=      5-min Rain = 0
KWA1 140531Z 15009KT 01/M11 A3042 RMK A01 T00071105  RH  043%=      5-min Rain = 0
KWA1 140532Z 15009KT 01/M11 A3042 RMK A01 T00061105  RH  043%=      5-min Rain = 0
KWA1 140533Z 15009KT 01/M11 A3042 RMK A01 T00061105  RH  043%=      5-min Rain = 0
KWA1 140534Z 15009KT 01/M10 A3042 RMK A01 T00051104  RH  044%=      5-min Rain = 0
KWA1 140535Z 15009KT 01/M10 A3042 RMK A01 T00051103  RH  044%=      5-min Rain = 0
KWA1 140536Z 15009KT 01/M10 A3042 RMK A01 T00051103  RH  044%=      5-min Rain = 0
KWA1 140537Z 15009KT 01/M10 A3042 RMK A01 T00051103  RH  044%=      5-min Rain = 0
KWA1 140538Z 15008KT 00/M10 A3042 RMK A01 T00041103  RH  045%=      5-min Rain = 0
KWA1 140539Z 15008KT 00/M10 A3042 RMK A01 T00031102  RH  045%=      5-min Rain = 0
KWA1 140540Z 15008KT 00/M10 A3042 RMK A01 T00021102  RH  045%=      5-min Rain = 0
KWA1 140541Z 15008KT 00/M10 A3042 RMK A01 T00011102  RH  046%=      5-min Rain = 0
KWA1 140542Z 15008KT 00/M10 A3042 RMK A01 T00011102  RH  046%=      5-min Rain = 0
KWA1 140543Z 15008KT 00/10 A3042 RMK A01 T00000-102  RH  046%=      5-min Rain = 0
KWA1 140544Z 15008KT 00/10 A3042 RMK A01 T00-00-102  RH  046%=      5-min Rain = 0
KWA1 140545Z 15008KT 00/10 A3042 RMK A01 T00-00-101  RH  047%=      5-min Rain = 0
KWA1 140546Z 15008KT M00/M10 A3042 RMK A01 T10011101  RH  047%=      5-min Rain = 0
KWA1 140547Z 15007KT M00/M10 A3042 RMK A01 T10011101  RH  047%=      5-min Rain = 0
KWA1 140548Z 15007KT M00/M10 A3042 RMK A01 T10021101  RH  047%=      5-min Rain = 0
KWA1 140549Z 15008KT M00/M10 A3042 RMK A01 T10021101  RH  047%=      5-min Rain = 0
KWA1 140550Z 15007KT M00/M10 A3042 RMK A01 T10021101  RH  047%=      5-min Rain = 0
KWA1 140551Z 15007KT M00/M10 A3042 RMK A01 T10031101  RH  047%=      5-min Rain = 0
KWA1 140552Z 15007KT M00/M10 A3042 RMK A01 T10031101  RH  048%=      5-min Rain = 0
KWA1 140553Z 15007KT M00/M10 A3042 RMK A01 T10031101  RH  048%=      5-min Rain = 0
KWA1 140554Z 15007KT M00/M10 A3042 RMK A01 T10031101  RH  048%=      5-min Rain = 0
KWA1 140555Z 15007KT M00/M10 A3042 RMK A01 T10031101  RH  047%=      5-min Rain = 0
KWA1 140556Z 15007KT M00/M10 A3042 RMK A01 T10021101  RH  047%=      5-min Rain = 0
KWA1 140557Z 14007KT M00/M10 A3042 RMK A01 T10021102  RH  047%=      5-min Rain = 0
KWA1 140558Z 14007KT M00/M10 A3042 RMK A01 T10021102  RH  047%=      5-min Rain = 0
KWA1 140559Z 14008KT M00/M10 A3042 RMK A01 T10011102  RH  046%=      5-min Rain = 0

Page generated in 0.1648 seconds.